GFSCGP_sfc_dewp_000.txt.gz
Dewpoint
26 19 20 22 23 20 18 16 16 17 24 29 26 20 21 25 25 27 27 25 28 35 37 37 39 41 46 53 53 51 49 48 46 44 41 40 41 41 42 42 45 46 45 46
19 22 22 25 24 20 20 18 17 22 25 29 24 21 22 25 27 29 28 28 30 32 33 36 39 43 44 48 48 45 42 42 41 40 42 43 44 42 43 42 44 43 43 42
20 21 23 23 26 25 22 20 24 23 25 27 25 23 22 24 26 28 29 30 30 31 32 35 39 42 44 44 44 42 42 42 43 42 40 41 41 40 39 39 38 39 41 40
23 26 27 26 27 28 22 26 29 27 25 19 27 17 25 22 24 26 28 31 32 32 32 33 35 39 42 45 45 43 42 41 41 42 41 43 39 38 39 40 39 38 39 39
24 26 28 27 27 30 28 32 30 29 26 26 25 18 25 25 24 26 28 31 33 34 36 37 39 39 41 43 44 44 42 41 41 40 42 40 41 40 40 39 39 37 36 38
28 30 30 30 29 30 32 30 30 30 30 27 26 23 25 26 26 27 30 34 36 36 35 38 39 39 40 44 45 44 41 40 42 41 41 43 44 42 39 37 35 34 35 36
27 29 31 33 28 32 29 26 27 29 28 26 26 23 28 28 29 31 33 34 37 39 38 37 38 38 41 42 43 40 40 38 41 42 39 40 40 40 39 37 35 36 35 35
25 26 31 34 32 30 30 30 30 20 25 23 25 20 26 30 31 32 33 35 36 37 38 38 37 39 40 42 42 42 39 38 38 38 37 37 40 40 37 37 37 36 36 38
28 26 32 32 33 32 29 30 31 30 30 31 24 26 30 30 30 31 32 34 35 36 36 36 37 39 41 41 41 43 41 38 39 40 41 41 42 40 39 38 37 36 39 37
32 28 30 31 33 34 31 32 29 30 28 16 14 18 19 30 30 30 31 34 35 36 36 37 37 38 40 41 43 44 43 41 41 41 40 39 39 38 37 37 37 37 38 39
31 30 27 31 31 30 32 32 29 28 30 24 22 18 30 28 29 30 32 32 35 37 37 37 38 39 40 42 42 42 42 42 41 39 39 38 38 36 36 36 37 37 38 35
35 34 26 24 33 34 32 30 28 27 20 29 30 24 29 30 30 32 33 33 35 38 37 37 38 39 40 41 41 41 41 39 38 36 36 36 36 35 35 36 37 37 37 37
35 33 22 24 31 32 31 31 31 31 32 29 30 26 28 30 29 31 34 34 36 37 36 36 38 39 39 39 38 38 39 38 36 35 34 34 36 36 36 37 37 38 38 38
40 33 27 18 20 26 24 24 28 29 32 28 28 27 27 27 29 31 34 37 36 36 36 38 39 39 37 37 37 39 38 37 36 35 34 35 36 38 38 38 36 35 34 33
38 30 32 29 28 27 28 27 26 26 29 30 29 26 27 29 31 33 36 36 36 37 38 38 37 37 36 36 37 38 37 35 36 35 33 33 33 31 31 30 30 29 28 24
37 33 34 30 30 28 29 28 27 29 30 30 29 29 30 32 34 35 36 36 36 38 37 37 35 34 32 33 36 37 33 34 36 33 31 29 30 28 27 27 26 24 22 21
37 37 34 33 31 31 32 30 27 27 30 29 28 29 32 33 35 36 37 37 38 38 37 36 34 31 32 35 39 33 32 34 34 30 28 29 29 25 24 21 19 20 22 23
39 38 36 35 34 29 28 29 29 29 29 28 28 31 34 36 36 36 38 39 39 38 35 32 30 29 32 36 35 33 31 32 31 29 27 28 26 23 20 19 19 21 22 22
39 39 34 32 28 28 27 28 29 28 28 31 33 35 37 37 36 36 39 39 39 37 34 31 30 30 32 35 32 32 31 30 28 27 28 28 25 22 19 19 20 21 21 22
36 38 39 34 30 28 29 29 32 33 29 36 39 40 40 37 36 37 39 39 36 32 30 28 26 29 34 35 32 33 31 30 28 28 30 26 25 22 19 21 22 23 22 21
35 34 34 33 32 31 31 32 34 32 35 40 40 39 40 37 39 39 39 34 28 27 27 26 24 25 30 32 32 33 29 26 25 27 27 26 24 20 21 22 22 23 22 24
31 36 33 34 31 29 32 32 36 38 41 40 40 40 38 39 38 34 29 26 24 25 25 23 23 24 27 30 32 30 24 22 25 27 27 26 23 20 19 22 23 22 23 25
32 34 32 32 34 35 36 37 39 40 41 41 40 38 38 36 29 25 24 24 24 25 23 22 24 26 27 28 31 27 23 26 28 26 25 24 23 22 22 22 23 22 21 24
34 35 36 36 36 36 39 39 41 41 40 40 39 35 32 29 26 25 23 23 25 21 21 24 24 24 27 29 32 28 28 27 25 24 24 23 23 23 23 23 21 19 23 23
37 36 36 36 38 39 37 41 42 41 41 39 35 31 27 24 23 22 22 21 20 21 23 24 24 25 24 26 32 29 27 25 21 22 22 24 25 25 24 22 20 21 23 22
37 35 38 37 39 39 39 40 41 41 39 33 28 25 23 23 23 22 20 21 21 23 25 24 25 26 25 25 26 27 25 25 25 23 23 26 28 27 25 20 20 22 21 19

GFSCGP_sfc_dewp_003.txt.gz
Dewpoint
23 19 21 22 21 17 14 12 12 15 20 20 21 16 21 24 24 25 24 25 25 26 37 44 42 43 46 48 48 47 49 50 46 44 43 41 41 42 43 43 45 47 46 46
17 22 22 23 23 21 19 17 16 18 21 21 21 18 21 24 26 26 26 28 31 35 37 39 41 43 44 49 49 49 47 43 41 41 42 44 45 43 43 43 44 43 44 44
21 23 24 23 23 23 21 21 24 22 22 20 21 20 21 23 25 26 28 29 30 32 34 38 41 45 47 47 46 43 43 43 43 42 40 41 41 41 39 40 41 42 45 41
23 26 25 24 25 26 23 25 26 23 22 18 21 15 23 22 24 27 30 31 31 31 32 34 38 41 45 46 45 43 42 41 41 44 41 43 40 39 41 42 41 40 41 38
25 25 27 26 26 28 28 30 27 26 24 22 20 14 25 22 23 26 30 31 33 35 36 37 38 40 42 45 46 45 43 41 42 41 43 42 43 44 44 43 43 43 40 38
27 28 29 29 28 28 30 29 28 29 26 25 24 19 23 23 26 28 31 33 35 34 37 37 39 40 42 45 45 45 41 39 42 42 43 45 46 45 40 39 37 36 37 36
26 28 30 31 28 31 27 27 28 29 27 26 24 18 27 27 28 30 32 33 36 38 37 37 37 38 41 42 43 41 40 39 41 43 43 40 39 40 40 38 37 37 35 35
23 28 28 30 30 28 27 28 31 20 24 22 23 16 25 29 30 31 31 33 35 37 39 38 38 40 40 41 42 44 42 40 39 41 40 41 40 39 38 38 37 36 36 37
26 26 29 30 31 30 28 28 28 30 31 30 19 22 28 29 29 30 31 32 34 35 36 37 37 39 41 41 42 44 43 41 41 42 42 41 40 39 38 38 38 36 38 34
28 28 27 28 31 32 31 29 30 29 27 15 13 12 22 29 27 29 29 31 33 35 36 36 37 39 40 41 42 43 43 42 42 41 40 37 38 38 37 36 36 36 36 36
27 26 27 27 29 28 30 30 27 22 26 23 20 19 28 26 28 29 31 31 32 34 36 37 38 39 39 40 41 42 42 42 39 38 37 38 37 36 35 35 36 37 38 37
33 30 28 21 31 33 30 29 26 28 21 27 28 25 28 28 28 30 31 32 34 36 36 36 37 38 39 40 40 41 41 39 38 37 36 34 34 34 34 35 36 36 37 38
34 33 25 23 31 31 28 28 27 29 31 28 31 27 29 31 30 28 31 34 34 36 37 37 38 39 39 39 40 40 40 39 38 36 33 32 33 33 34 34 34 34 34 33
39 30 25 24 21 22 22 21 22 26 29 29 28 26 25 26 28 29 31 34 36 37 37 38 37 37 37 38 39 38 39 39 38 34 32 32 32 32 31 30 30 29 28 26
35 30 30 28 24 22 23 23 23 21 24 28 29 25 26 28 30 32 34 34 35 35 37 38 37 36 35 34 34 34 38 38 36 35 33 32 30 29 28 27 27 26 24 21
35 33 34 30 25 23 24 23 21 22 25 25 25 26 30 31 31 33 35 37 36 37 39 38 35 33 32 31 31 33 36 34 34 35 32 30 29 28 27 25 24 22 21 20
36 37 32 32 32 31 34 31 23 24 25 28 28 28 29 31 35 36 37 37 38 39 38 36 34 31 29 28 29 31 31 32 33 32 30 27 28 29 25 23 19 19 20 22
40 36 38 36 34 30 29 27 27 27 27 26 26 28 32 35 36 36 39 38 37 36 36 33 30 27 24 24 26 30 30 29 29 28 27 27 29 28 25 22 19 20 21 22
38 40 36 34 29 28 27 28 28 29 29 29 32 36 37 37 37 35 38 37 37 36 33 28 26 23 22 21 24 27 27 26 26 27 27 28 29 30 25 21 20 21 21 22
37 41 39 36 31 29 32 29 31 32 29 37 38 38 39 37 36 33 36 36 34 29 24 23 24 22 20 20 21 23 24 25 26 25 23 26 27 28 26 22 21 21 21 21
36 36 36 33 33 31 30 32 34 30 35 40 40 40 39 36 36 37 36 30 25 22 21 22 20 18 19 21 23 23 22 24 24 23 24 26 27 26 23 20 21 20 21 25
33 36 34 35 33 29 32 32 36 38 39 41 40 41 38 38 35 32 27 23 22 20 19 18 17 18 20 19 21 21 19 23 24 26 26 24 24 21 16 21 20 21 21 25
31 34 34 33 33 33 37 41 41 40 40 41 41 40 40 35 29 27 24 22 21 18 15 15 15 19 19 20 20 19 27 30 29 30 28 24 21 18 18 20 20 19 20 24
33 32 37 37 34 33 37 39 40 42 41 41 41 39 33 30 27 24 23 22 19 15 14 14 17 18 20 21 21 23 30 32 28 26 23 21 21 23 22 19 18 18 23 23
36 35 36 37 35 35 37 41 41 40 41 41 38 34 30 26 24 24 22 19 17 17 17 19 20 20 21 23 24 23 27 26 24 25 21 23 24 24 23 20 20 22 24 22
35 35 38 38 38 40 40 42 41 39 39 38 32 29 27 26 24 22 19 19 19 19 20 19 19 21 23 25 25 27 28 26 27 25 23 26 27 26 24 21 21 23 22 19

GFSCGP_sfc_dewp_006.txt.gz
Dewpoint
21 20 22 23 21 17 13 11 9 16 19 17 16 18 20 23 23 28 31 28 29 32 42 46 49 50 50 53 50 53 56 56 52 52 50 49 49 49 50 49 50 49 51 50
15 22 21 20 19 18 16 15 15 17 19 17 18 16 21 23 26 27 27 30 35 39 39 42 47 50 54 53 53 54 52 49 47 47 49 49 49 48 48 49 49 50 50 48
25 22 21 20 22 21 20 19 25 22 22 20 18 19 21 24 26 27 30 32 33 36 39 41 45 49 51 50 50 45 45 46 48 49 45 46 47 45 45 45 46 47 47 45
23 23 23 22 24 25 21 27 25 22 20 17 18 14 21 23 25 28 31 33 33 33 35 38 43 46 48 49 50 46 46 45 46 47 47 46 44 45 47 49 47 47 46 46
24 25 26 26 26 26 26 28 25 24 23 21 19 19 24 23 24 28 31 33 35 38 39 39 41 44 45 49 50 49 46 44 45 46 46 46 48 48 48 48 47 45 45 44
26 26 29 28 27 26 29 29 27 27 26 30 20 21 27 24 26 29 32 34 35 37 39 39 41 44 45 49 49 48 45 43 45 46 48 47 46 45 44 44 43 41 41 41
26 27 29 28 29 30 26 27 32 35 33 31 25 20 28 28 29 30 32 34 37 40 41 40 40 41 43 46 47 47 46 44 45 45 44 45 45 45 44 43 41 40 39 40
24 27 27 28 28 26 27 26 36 25 29 28 20 15 26 30 30 31 32 33 36 38 41 40 40 42 43 45 46 47 45 43 43 46 45 46 45 42 42 42 40 40 40 40
26 26 28 27 28 27 29 28 25 31 34 32 19 26 28 29 29 30 30 31 34 36 38 38 40 42 43 44 46 47 45 44 45 47 46 44 43 43 42 41 41 40 41 38
25 28 24 24 29 30 28 26 29 35 29 20 16 20 27 28 29 29 29 30 32 36 38 40 39 42 43 43 46 48 46 43 43 41 41 40 40 41 41 41 40 40 39 38
28 28 26 27 28 26 28 28 27 23 30 27 24 20 25 27 28 29 31 31 34 36 37 39 39 41 41 43 43 45 43 41 41 40 40 41 41 40 39 39 39 38 38 37
29 29 36 23 27 28 27 27 25 34 26 34 32 23 29 31 33 32 32 34 36 38 39 39 40 40 40 41 42 41 42 42 41 40 40 38 38 37 36 38 36 36 36 36
33 34 33 26 31 29 24 26 24 31 36 29 32 28 30 36 33 32 32 35 37 38 37 38 39 39 38 38 39 38 40 41 41 39 37 36 36 35 35 34 34 34 34 33
40 29 27 28 21 22 21 20 21 23 34 31 30 26 27 34 32 31 32 36 36 37 38 39 39 38 36 36 36 36 37 41 40 38 36 36 36 33 32 33 31 32 31 29
35 31 30 27 23 22 21 21 21 20 23 27 27 23 26 30 31 36 37 37 37 38 38 38 38 37 35 34 34 32 34 37 39 38 36 37 35 33 33 33 31 31 30 26
35 38 37 33 24 24 24 23 22 21 21 23 25 25 29 34 35 36 37 37 38 37 36 35 35 33 31 31 29 28 29 32 38 33 35 35 34 32 33 32 32 29 28 26
38 40 37 34 32 32 34 33 24 23 24 26 30 29 33 34 35 35 37 38 36 35 34 34 32 30 28 25 24 24 26 28 32 32 32 35 37 35 35 32 28 25 26 27
40 39 39 35 35 30 28 27 27 27 25 26 25 30 35 35 36 35 38 37 34 34 33 31 27 26 25 25 23 24 21 23 24 26 32 35 36 34 32 31 30 27 26 27
37 41 34 35 29 28 27 29 29 30 29 29 33 36 36 36 35 35 35 35 34 33 29 24 23 24 23 21 22 22 22 22 22 22 31 32 36 31 31 30 30 27 26 26
38 43 41 34 30 26 33 30 32 32 30 38 38 38 38 36 35 34 36 34 31 25 22 21 21 20 19 21 20 20 20 21 22 32 31 30 28 30 30 31 29 26 25 25
35 37 35 34 32 32 30 31 34 29 34 40 40 39 38 36 39 38 34 29 24 22 20 21 19 18 19 19 20 20 20 20 28 30 31 32 32 29 28 28 25 25 25 27
33 34 33 34 32 28 33 31 34 40 42 40 39 39 40 39 39 34 28 24 22 20 18 16 17 18 20 19 20 20 20 24 29 32 31 31 30 27 22 25 25 25 24 27
33 38 37 35 35 38 37 38 40 43 42 41 41 39 38 38 35 29 25 24 22 18 16 16 16 19 20 20 20 20 24 25 29 30 28 28 26 24 24 23 23 23 24 25
31 31 41 39 34 33 36 38 42 42 41 40 39 39 39 33 30 26 25 24 20 17 17 17 19 19 20 21 22 25 27 27 28 27 27 27 25 25 25 23 22 23 26 25
38 35 36 37 35 36 37 41 41 41 41 40 39 37 31 28 26 25 23 21 20 19 20 20 20 20 22 23 25 27 26 28 27 27 26 27 29 28 26 23 24 27 26 23
37 33 38 38 38 40 41 41 40 40 39 38 35 30 28 27 24 22 21 21 20 20 20 19 21 23 23 25 27 28 27 28 30 29 28 29 29 29 26 25 23 25 23 21

GFSCGP_sfc_dewp_009.txt.gz
Dewpoint
27 26 23 22 23 20 18 16 18 18 19 20 18 19 23 27 27 26 29 40 41 42 45 49 50 52 54 55 55 55 55 53 52 48 48 47 45 45 46 45 48 46 45 45
23 23 23 23 25 24 19 23 25 21 21 16 17 20 24 27 28 30 32 37 39 42 45 46 46 45 48 51 52 50 49 49 47 46 47 46 46 46 45 45 46 47 47 45
25 25 23 23 27 25 25 26 25 24 22 20 21 21 24 27 29 30 32 33 37 41 43 45 45 45 45 47 44 43 43 43 45 46 42 42 42 43 44 46 46 46 47 44
23 27 26 26 26 26 27 30 28 25 23 19 18 19 24 27 30 32 33 35 36 39 43 43 44 44 45 45 43 43 42 41 43 44 43 42 43 44 46 47 46 46 43 41
27 28 29 28 27 27 30 33 29 28 25 24 22 23 24 28 29 30 32 35 36 38 40 42 43 44 45 44 43 43 42 41 43 42 42 45 44 44 45 45 41 40 40 40
27 30 29 28 29 29 29 31 31 29 28 26 27 27 29 31 30 32 34 36 36 37 39 41 43 44 43 43 42 41 41 41 42 43 45 43 40 42 42 40 39 39 39 40
27 29 29 30 30 32 29 31 28 27 27 26 31 28 30 31 32 34 36 37 38 39 39 39 41 42 43 43 43 43 43 42 43 43 43 42 41 40 40 39 38 38 40 38
28 27 27 29 28 28 30 30 27 25 25 25 19 25 28 30 32 33 34 36 38 38 38 38 38 39 40 41 41 43 42 42 43 45 42 41 41 41 41 39 38 39 39 39
30 27 29 27 28 29 31 27 27 30 29 26 25 27 29 30 30 31 31 32 36 37 37 36 40 41 41 42 44 44 43 42 41 39 40 40 42 41 40 38 39 39 38 37
28 27 26 26 30 31 27 27 28 29 21 19 21 27 30 32 33 31 30 32 34 36 37 39 40 41 41 42 44 43 42 41 41 39 41 40 40 39 38 38 37 36 36 37
32 32 28 30 28 28 30 30 29 27 27 23 22 23 31 32 33 33 34 36 37 38 38 39 39 40 40 41 42 42 41 41 40 39 40 38 38 36 37 36 35 35 34 34
32 31 27 28 30 29 29 29 30 26 25 27 26 23 35 34 34 34 34 37 38 37 38 39 39 39 38 38 38 37 38 40 40 39 39 36 36 33 33 33 33 32 32 34
36 30 27 29 31 30 26 26 33 34 29 23 20 24 34 36 37 36 35 36 36 38 39 39 39 38 37 36 36 36 37 39 39 39 37 36 36 32 31 30 32 31 30 28
40 31 28 25 25 24 24 23 25 32 27 27 27 27 28 37 36 36 37 37 37 38 37 37 37 37 35 34 34 34 33 36 39 39 38 39 39 35 32 33 32 29 28 25
36 32 32 30 27 25 24 23 23 22 25 25 26 28 33 36 36 37 37 38 38 37 36 35 34 34 32 32 30 27 28 32 32 38 37 37 38 37 37 37 34 32 29 26
38 32 30 29 30 29 27 27 26 24 24 24 26 28 35 36 36 36 37 37 35 34 34 34 34 32 28 25 24 25 26 27 28 25 26 36 38 38 39 38 36 31 27 24
37 31 29 28 32 32 25 29 28 28 28 28 26 30 36 35 35 37 37 35 34 34 33 33 32 28 25 24 25 24 23 25 25 25 30 37 37 37 37 37 34 30 27 24
34 33 31 24 24 15 31 30 29 30 29 29 34 36 36 35 37 36 35 34 33 33 32 32 30 24 23 22 22 22 22 23 25 30 32 34 35 35 37 37 31 28 27 24
40 33 25 26 25 25 28 31 31 30 29 37 37 37 37 36 35 34 35 34 33 31 28 24 22 21 20 20 20 20 21 21 22 30 31 31 32 34 34 36 32 30 26 25
40 35 28 27 18 14 28 33 34 34 28 40 39 38 37 36 29 34 38 35 28 24 23 21 19 18 19 19 19 20 20 21 28 31 31 33 33 33 34 34 31 25 23 27
27 27 24 29 17 27 34 34 35 27 27 40 40 38 38 36 36 38 39 29 24 23 21 21 18 18 19 19 20 20 21 22 29 32 32 32 31 31 31 28 24 23 26 27
28 26 28 28 21 21 35 33 28 34 41 41 38 39 39 39 39 40 31 25 24 22 18 17 19 20 20 20 21 21 23 25 28 30 31 29 29 26 24 23 23 24 24 24
29 33 30 30 29 34 36 35 39 41 41 40 40 40 39 39 38 33 27 26 24 18 18 18 19 21 21 22 22 24 27 28 29 29 28 27 27 26 25 23 22 23 23 21
33 37 32 33 36 35 37 41 42 42 41 40 39 39 40 39 32 28 27 23 21 19 19 20 20 21 23 24 25 28 28 27 28 27 27 27 27 28 26 24 23 24 21 19
34 36 33 33 36 37 41 42 42 40 41 41 40 40 37 30 28 25 23 22 21 19 20 21 22 24 24 27 28 28 28 27 28 28 28 27 27 27 26 24 22 25 22 21
38 34 32 31 38 38 41 41 42 41 40 41 39 30 29 26 23 22 21 21 21 22 24 23 25 26 26 29 29 30 30 29 28 27 27 26 25 25 26 25 24 26 24 23

GFSCGP_sfc_dewp_012.txt.gz
Dewpoint
28 23 19 21 22 21 19 20 18 18 20 17 21 25 27 30 36 39 42 45 44 43 45 49 52 56 56 56 56 54 52 51 54 48 50 47 45 44 45 47 48 47 47 47
24 22 23 25 28 27 27 23 22 23 23 15 21 23 27 31 33 38 42 43 43 42 43 45 47 48 49 50 52 51 47 46 45 48 48 49 45 45 45 46 47 47 45 43
24 22 26 28 26 27 29 25 25 23 23 20 23 22 27 31 34 35 37 42 44 43 43 43 45 46 47 48 46 43 42 43 44 45 43 43 44 45 45 46 44 42 42 41
23 30 28 28 26 28 28 29 27 25 23 16 19 19 24 31 33 35 38 41 42 43 44 43 43 43 43 43 42 41 41 41 42 43 42 43 44 44 45 45 42 39 40 40
28 29 29 27 28 29 28 31 29 28 25 25 23 22 24 30 30 33 36 39 41 42 42 42 43 43 42 42 42 41 41 41 42 42 43 44 42 43 44 41 39 38 40 41
27 30 28 28 30 30 29 31 32 30 29 24 27 26 26 29 30 33 36 37 39 41 42 43 43 43 42 42 41 41 42 43 43 43 44 42 41 40 39 38 38 39 41 40
28 29 29 30 29 30 29 31 26 26 25 24 30 28 29 32 33 36 37 37 38 39 41 42 42 42 42 42 43 43 42 43 44 42 41 40 39 39 38 38 38 40 40 39
27 26 27 28 29 27 29 29 26 23 22 23 27 27 27 33 36 37 37 38 38 38 40 41 41 40 41 43 43 43 40 38 40 40 39 39 39 41 40 38 40 40 38 38
28 27 29 27 28 30 30 25 28 27 27 24 26 28 29 32 32 32 34 37 37 37 38 40 41 41 42 42 42 42 41 40 39 39 39 39 41 41 39 39 38 37 37 37
30 25 27 26 31 30 24 27 27 27 19 18 21 27 27 30 31 32 35 35 37 39 38 39 40 41 42 42 42 42 41 40 39 38 39 38 38 38 38 37 36 36 36 35
33 29 27 32 27 27 28 27 28 27 26 21 20 23 32 33 34 35 36 37 38 38 39 39 39 39 40 38 38 38 39 39 40 39 38 38 36 36 37 36 35 35 34 33
33 30 25 28 28 29 28 29 29 23 23 26 25 21 34 34 35 36 36 37 38 39 39 39 38 38 36 35 35 35 36 37 40 40 39 38 37 35 33 35 36 34 33 33
32 29 25 28 31 30 28 28 33 31 26 20 18 20 34 36 36 36 36 37 38 38 38 37 37 36 35 34 34 32 30 32 36 38 38 38 38 36 33 33 33 34 33 32
39 32 26 26 26 25 22 24 32 29 25 25 24 24 33 35 36 36 37 38 37 36 35 35 34 34 33 32 28 26 28 30 30 31 35 36 36 38 34 34 35 36 36 37
35 30 31 28 28 26 25 24 25 24 28 25 25 27 34 36 36 37 38 37 35 34 34 34 33 33 31 26 25 25 26 26 28 26 28 36 37 37 36 37 36 36 37 37
38 30 29 28 31 32 25 27 27 26 25 25 26 32 36 36 36 37 36 34 34 33 33 33 32 31 26 24 23 23 23 25 27 26 34 36 36 37 37 37 38 37 36 27
34 30 25 24 30 29 22 27 29 27 28 27 25 31 36 35 37 36 34 33 33 33 32 32 31 26 23 22 22 20 21 24 25 29 33 34 37 35 36 37 37 36 33 32
32 31 26 20 20 9 27 31 29 29 32 35 35 35 35 36 37 35 34 32 32 32 31 29 23 21 21 20 19 21 21 22 24 30 31 32 34 33 34 35 34 35 35 26
36 29 26 16 22 20 25 30 29 27 29 37 36 36 36 37 34 34 34 33 32 29 25 23 21 20 19 19 19 20 21 21 27 30 30 31 32 32 33 34 33 33 28 26
37 30 25 27 12 8 21 32 34 32 27 39 38 37 36 34 29 32 38 37 27 24 23 20 18 18 18 18 19 20 21 22 28 31 31 32 32 33 32 32 32 27 25 27
27 24 22 18 15 23 28 34 34 25 25 40 39 38 37 34 34 36 39 32 24 23 19 20 19 19 19 20 21 22 23 24 28 30 31 31 29 28 28 25 24 26 27 25
27 25 24 23 16 19 33 34 28 31 39 40 39 39 38 38 39 39 37 26 23 17 18 19 20 20 22 22 23 23 25 26 28 29 29 27 27 27 24 23 25 25 23 23
26 28 28 29 29 31 34 34 36 41 40 39 38 39 39 38 38 37 27 23 21 19 18 20 20 21 23 24 24 25 27 27 28 29 27 26 27 27 26 22 23 23 22 20
32 37 32 32 33 35 36 39 41 41 40 40 40 39 39 38 36 27 23 21 20 18 18 20 22 23 25 26 28 28 29 29 28 27 27 27 27 27 26 23 24 23 19 18
32 35 33 32 34 39 40 41 41 40 40 40 39 40 39 31 23 23 21 21 20 20 22 23 25 26 26 27 29 30 30 30 27 28 27 27 26 26 26 22 23 24 21 20
37 32 32 31 34 34 38 41 41 40 41 42 39 29 25 23 22 21 21 23 22 23 24 25 27 27 28 29 28 30 31 31 30 28 27 27 25 23 24 24 24 26 25 23

GFSCGP_sfc_dewp_015.txt.gz
Dewpoint
27 22 18 21 22 18 19 19 18 17 19 24 26 27 31 39 43 44 44 44 47 47 50 52 53 55 54 54 56 56 56 55 52 49 49 49 50 49 48 47 47 45 45 43
23 20 23 29 29 26 23 21 22 23 21 25 28 27 33 35 39 43 42 43 44 47 47 48 50 50 53 53 51 49 50 48 47 50 51 52 49 46 48 46 43 42 42 41
22 23 27 26 27 27 28 25 23 21 22 25 26 27 29 34 39 42 43 42 43 46 46 47 49 48 48 45 44 42 43 43 46 49 47 44 44 45 45 44 40 40 41 41
28 31 28 27 25 28 27 29 27 24 20 22 22 21 29 32 37 40 42 43 43 45 44 43 43 42 42 42 41 40 41 41 42 42 42 42 43 43 45 42 38 39 41 41
28 29 28 25 27 28 28 30 27 27 24 23 23 24 27 31 34 37 40 42 42 41 41 41 41 41 41 41 40 41 42 42 42 42 43 44 42 43 41 39 38 39 41 41
29 30 28 28 30 29 29 31 31 32 28 24 27 25 25 29 32 35 38 41 41 42 42 42 42 42 41 41 41 42 43 43 43 41 41 40 39 38 37 37 38 41 41 41
27 27 28 30 29 30 30 29 25 25 24 24 28 27 28 31 34 36 38 38 40 42 42 42 42 42 42 43 43 41 41 40 40 39 39 39 38 37 36 37 39 40 40 41
26 23 26 26 28 26 28 28 26 22 21 22 27 26 28 34 36 37 37 38 40 41 41 41 41 41 42 41 40 39 38 38 38 38 38 38 38 40 39 38 39 40 39 38
26 25 28 27 27 30 29 25 29 27 26 24 26 27 29 32 35 36 37 37 37 39 39 40 41 41 41 41 41 40 39 38 38 38 38 38 39 40 39 39 38 38 37 37
30 23 27 26 30 30 26 29 26 26 17 18 22 25 27 30 31 33 36 37 38 38 39 39 40 41 41 39 40 40 40 40 39 39 39 39 38 38 39 38 37 36 36 37
32 25 25 29 27 27 27 26 27 28 25 20 19 24 31 31 34 35 36 38 38 38 38 38 39 39 38 37 36 36 36 37 39 40 39 39 39 37 37 37 36 36 35 34
33 29 25 26 29 31 28 28 25 22 23 25 23 21 33 34 36 36 37 37 38 38 38 38 37 36 35 34 34 32 31 32 34 35 36 37 37 36 35 34 35 34 35 35
31 28 25 27 29 28 27 29 31 28 25 23 18 19 32 35 35 36 36 38 38 37 36 36 36 34 34 33 30 27 28 27 29 29 31 32 34 36 37 33 33 34 32 32
37 31 25 24 25 26 21 26 30 27 23 23 22 21 33 35 35 36 37 37 36 35 35 34 33 33 32 29 25 25 25 26 26 25 29 33 35 35 34 34 33 33 34 36
33 28 29 28 29 26 23 22 28 27 27 23 24 26 28 35 36 37 37 36 34 34 33 33 32 32 30 25 24 23 23 24 25 25 30 34 36 36 36 36 36 36 36 36
36 28 26 29 31 31 24 24 24 25 25 28 26 27 36 36 37 37 36 34 33 32 31 31 31 31 26 23 21 21 21 23 25 25 31 34 35 36 36 36 36 36 36 35
32 28 22 17 29 26 15 25 28 26 27 26 25 29 35 36 37 36 35 34 33 32 30 30 30 27 23 22 21 19 20 23 24 25 32 33 34 35 33 35 35 35 33 36
31 29 23 19 20 7 20 29 29 27 30 34 34 35 35 36 37 36 34 33 33 32 31 30 25 21 22 20 19 21 20 22 23 27 30 32 32 32 32 33 34 33 32 30
34 28 25 17 19 17 19 29 29 28 26 35 34 35 35 36 34 34 34 33 33 32 28 25 21 20 19 18 19 20 21 21 23 29 30 30 32 32 32 32 31 31 30 26
33 28 23 24 10 5 17 31 33 30 26 37 36 36 36 34 30 33 35 35 34 26 22 19 18 18 18 19 20 21 21 23 25 29 30 31 32 30 29 28 29 26 26 26
26 23 19 14 13 21 25 33 33 23 21 38 38 37 36 34 34 34 38 38 26 21 18 20 19 19 20 21 23 22 23 25 26 29 29 30 28 27 26 24 23 26 26 24
29 27 23 24 17 17 31 32 29 31 35 39 39 38 38 36 38 39 39 25 20 18 19 19 20 21 22 24 24 24 25 26 27 28 29 27 26 26 24 23 25 25 23 22
26 27 27 27 27 30 33 33 35 38 39 39 39 39 39 39 39 39 27 22 20 18 18 20 20 22 24 25 25 26 27 28 29 29 28 26 27 26 25 22 23 23 22 19
32 34 30 30 30 32 33 35 38 40 40 40 40 40 39 38 38 27 23 21 19 18 20 21 23 24 25 27 28 29 30 30 30 28 28 28 27 27 26 23 23 22 20 18
32 35 32 32 33 37 39 39 40 41 41 40 40 39 39 38 27 23 21 20 20 21 22 23 25 26 26 28 29 28 30 30 29 29 29 28 29 26 25 22 23 24 23 22
36 32 30 29 33 36 34 40 41 40 40 39 38 33 28 25 22 21 22 22 23 23 24 24 26 27 27 29 27 28 30 31 30 31 30 30 29 26 25 23 24 26 26 25

GFSCGP_sfc_dewp_018.txt.gz
Dewpoint
26 21 18 22 19 15 17 16 16 17 20 28 32 34 36 43 43 43 45 46 48 49 51 54 55 55 55 56 58 58 57 57 56 49 49 48 49 51 48 44 44 44 42 41
22 21 24 29 28 24 22 20 20 22 25 31 33 31 37 39 42 43 44 46 48 48 49 51 52 52 53 54 55 55 55 51 48 49 50 51 49 46 46 43 41 41 41 41
21 25 28 28 27 25 27 22 23 21 27 29 29 28 33 37 42 42 42 44 46 48 48 50 51 49 47 45 46 45 45 46 47 48 45 44 44 45 44 41 38 40 41 41
28 30 27 25 25 27 24 28 25 23 25 23 25 25 30 35 39 41 42 43 45 46 45 44 42 41 41 41 40 41 41 41 42 43 43 43 43 42 42 39 38 39 40 40
28 28 26 25 26 27 27 30 27 25 24 22 23 26 28 36 38 40 41 43 43 43 42 41 39 40 41 41 41 42 43 43 43 43 43 42 42 41 39 38 38 39 40 41
28 29 28 27 29 28 29 30 30 31 27 23 27 25 26 32 35 38 40 42 41 42 42 41 41 41 41 42 43 43 41 40 40 39 40 39 37 37 36 36 37 40 40 40
26 27 27 29 28 29 31 28 25 25 24 24 28 26 25 31 35 39 39 40 41 42 42 41 41 42 43 42 41 40 39 38 38 38 38 38 37 37 36 36 37 37 39 40
24 19 24 26 27 26 26 28 26 21 23 23 27 25 27 32 35 38 39 40 41 41 42 41 41 41 40 39 38 38 38 37 38 38 37 37 37 39 39 38 38 39 39 39
25 24 27 26 28 29 28 25 28 27 26 24 26 27 32 35 36 37 37 38 40 39 40 41 41 40 40 40 40 39 38 38 38 38 39 38 38 38 39 39 38 38 38 37
29 24 26 26 30 29 27 29 24 25 17 16 22 25 27 32 35 35 36 37 38 39 39 40 40 40 39 39 40 41 40 39 39 39 39 39 39 38 37 37 37 36 36 36
29 25 23 27 26 26 27 25 27 27 24 19 17 23 29 33 35 34 36 38 38 38 39 39 39 38 37 36 36 36 34 36 35 34 36 35 35 35 35 35 35 35 35 35
32 28 25 24 29 32 28 26 24 21 20 24 22 19 28 33 34 36 37 38 38 38 37 37 37 36 35 34 33 30 30 28 29 31 31 30 33 34 36 34 34 35 34 35
30 27 25 24 25 26 26 30 28 26 25 24 18 18 32 35 36 37 37 37 38 37 37 37 36 35 35 33 30 27 28 25 26 26 28 29 32 33 33 33 33 33 33 33
36 29 23 21 21 25 24 28 28 24 21 21 22 19 31 34 35 36 37 37 36 35 35 33 34 33 33 30 27 26 25 25 24 24 26 30 32 33 33 33 34 34 34 33
31 26 27 28 29 26 22 22 28 25 24 22 22 21 24 34 35 36 38 37 35 34 34 32 32 32 30 26 25 23 23 24 24 25 25 30 33 35 35 35 35 35 35 35
34 27 23 28 30 29 25 23 24 27 26 27 27 26 28 34 37 37 37 35 34 33 32 31 31 31 30 25 22 21 21 22 24 25 25 31 33 34 35 34 34 35 34 34
30 27 20 15 27 22 17 22 24 24 26 25 23 24 35 35 36 36 36 35 34 33 31 30 30 30 24 23 21 19 20 22 23 25 26 31 32 32 33 32 33 33 32 32
29 26 21 17 18 8 19 28 28 26 27 28 31 32 35 35 36 37 36 35 34 33 30 31 30 23 22 21 19 20 20 21 23 23 27 30 31 31 31 32 31 31 31 30
31 26 23 16 17 16 14 23 28 27 25 33 32 34 35 35 35 35 36 35 34 34 33 29 24 20 20 18 19 20 21 22 22 25 29 30 30 31 31 30 28 29 28 26
30 26 22 17 9 5 17 26 31 29 25 32 35 35 35 35 30 34 35 35 33 32 25 21 19 18 18 19 21 22 22 23 24 26 29 30 30 30 27 27 26 27 26 26
26 25 18 12 12 19 22 30 32 22 23 36 36 35 35 34 35 35 36 35 35 23 19 20 19 19 20 22 23 23 23 24 26 27 28 29 29 26 26 25 24 24 25 24
29 27 21 21 13 16 28 32 27 30 32 37 37 37 36 36 35 37 37 32 20 19 20 20 20 21 23 25 25 24 25 27 28 29 29 29 27 26 26 24 25 25 23 22
26 27 25 25 25 28 30 33 34 34 33 38 38 38 38 37 37 39 30 21 20 18 18 20 21 23 25 26 26 27 28 29 29 29 28 28 27 27 26 23 23 22 22 19
32 32 28 28 28 31 32 33 35 36 37 38 40 39 39 38 39 32 23 23 22 19 20 21 23 23 25 26 28 28 28 29 29 28 28 28 27 27 26 26 23 23 19 20
32 33 30 30 32 33 34 37 36 37 40 40 40 40 40 39 34 27 26 23 20 21 23 23 24 26 26 27 29 27 27 29 29 29 29 30 29 30 27 23 23 24 23 23
34 31 29 28 30 30 31 34 40 40 40 41 40 38 31 31 27 26 24 23 23 23 23 24 26 26 26 29 29 28 29 28 29 29 30 30 30 28 27 24 23 26 26 26

GFSCGP_sfc_dewp_021.txt.gz
Dewpoint
27 22 20 22 17 14 15 15 15 19 26 35 37 38 40 42 44 45 46 48 50 51 54 56 57 59 59 59 59 60 59 59 56 51 50 49 52 53 47 43 44 44 43 44
25 24 26 30 26 24 22 21 23 26 30 34 35 38 41 42 42 44 46 48 50 51 53 54 56 57 58 59 59 58 57 57 51 49 51 53 51 48 43 42 43 43 44 43
26 26 29 28 27 27 26 24 24 26 30 32 32 32 38 42 44 45 47 49 51 52 53 53 53 55 55 55 57 55 50 50 50 51 49 47 48 47 44 41 40 41 42 41
29 30 26 26 27 26 27 27 28 28 26 23 26 18 34 41 43 45 47 50 51 52 53 50 46 46 48 47 49 48 47 46 45 46 47 47 45 45 42 41 41 40 42 42
28 29 26 28 28 29 28 28 27 24 24 24 25 24 30 40 41 44 45 46 48 48 47 43 42 42 42 44 45 46 45 45 45 46 46 44 43 42 41 41 41 42 42 42
28 29 29 28 30 30 33 31 31 31 28 23 26 23 26 37 40 42 42 44 44 44 42 41 42 42 42 45 46 45 42 41 42 42 43 43 42 41 40 40 41 41 42 42
27 27 27 31 29 29 31 29 27 27 28 24 28 26 26 32 38 42 41 42 43 43 42 41 41 42 43 44 43 42 41 40 42 42 41 41 41 41 41 41 40 41 41 42
23 22 23 28 28 26 28 29 31 21 25 26 26 26 26 33 35 42 41 42 42 42 42 42 43 43 42 42 42 41 40 40 40 41 41 41 42 41 41 42 41 41 41 41
27 22 27 28 29 30 28 26 30 28 26 26 25 27 30 35 34 39 40 41 41 42 42 42 43 42 41 41 42 42 40 39 40 41 42 42 42 41 39 39 40 39 40 38
30 26 27 27 30 31 29 30 26 27 21 16 19 25 25 33 34 38 39 40 41 42 41 42 41 42 41 41 43 43 41 40 42 41 40 38 37 36 36 38 35 36 37 37
28 30 28 27 27 28 28 27 28 27 25 19 18 17 31 33 35 37 39 40 41 41 41 41 41 39 39 40 40 40 38 38 35 32 34 33 33 35 37 35 35 34 36 35
32 32 29 24 29 31 28 27 28 26 21 25 24 19 27 34 36 38 38 39 40 41 41 40 39 38 37 37 36 33 35 30 29 30 30 30 33 33 34 34 34 35 35 36
33 31 27 26 26 28 27 29 26 27 28 25 31 19 28 35 35 36 37 39 39 39 39 39 37 36 35 35 32 30 30 28 27 26 26 28 30 33 34 34 35 36 36 37
37 30 27 23 21 27 26 29 26 26 26 23 26 22 23 33 35 36 37 39 38 38 38 37 36 35 35 34 29 29 28 28 25 24 24 27 31 34 35 36 37 37 36 37
34 29 28 28 28 26 22 26 27 23 25 26 23 22 23 29 35 36 38 38 37 37 36 35 34 33 33 32 29 28 27 26 26 26 26 28 31 35 36 37 36 36 37 37
34 30 28 27 29 28 26 25 25 28 27 25 25 26 28 30 35 37 37 37 36 35 35 34 33 33 32 31 28 26 25 25 25 26 26 28 32 34 35 35 35 35 35 35
32 30 26 23 26 23 23 25 25 26 27 28 26 27 34 34 35 36 37 38 37 35 35 33 32 32 32 31 28 24 22 24 24 25 26 27 32 33 33 33 33 33 33 35
30 26 24 26 23 19 22 29 26 26 26 26 26 28 33 34 36 37 38 38 37 35 34 32 31 32 27 26 23 23 21 23 24 25 26 30 32 32 32 33 32 31 31 33
30 29 25 28 21 19 16 21 28 29 24 29 27 31 35 36 37 37 38 38 38 37 35 32 32 26 24 22 21 22 23 23 24 25 27 29 31 31 31 30 30 29 30 30
30 29 30 24 22 19 22 21 32 30 28 30 33 35 36 36 36 35 38 37 37 36 34 27 23 21 21 22 23 24 23 24 25 27 28 29 30 30 30 29 28 27 27 27
32 30 28 21 27 24 24 27 32 25 28 32 36 37 37 37 39 37 39 37 35 31 24 22 21 21 22 24 25 23 24 25 27 29 30 30 28 29 29 28 27 26 26 27
29 30 29 24 24 23 28 32 32 35 34 34 38 38 39 39 37 37 37 33 25 20 20 21 22 23 25 25 25 23 25 28 28 28 30 28 29 28 26 28 27 26 26 26
28 31 31 28 30 31 31 36 36 35 34 36 39 39 39 39 37 38 34 24 20 19 20 20 22 24 25 25 26 26 28 27 28 30 29 28 28 28 27 27 27 24 24 25
32 32 32 31 31 30 32 33 34 35 37 37 39 40 40 39 38 36 24 22 23 20 21 22 23 22 24 26 27 29 28 28 29 29 30 30 29 27 28 29 26 24 26 25
33 33 32 32 33 33 33 35 37 37 37 38 39 41 41 40 39 26 24 24 25 26 23 23 23 25 24 26 28 29 28 29 29 29 29 30 30 30 29 29 25 25 26 26
34 33 34 33 33 34 33 33 37 39 39 40 40 39 39 37 29 26 28 30 27 24 23 23 25 25 25 28 29 29 28 29 30 29 29 31 31 31 30 28 26 27 27 26

GFSCGP_sfc_dewp_024.txt.gz
Dewpoint
28 23 20 16 18 14 12 12 10 18 29 30 30 30 33 41 43 44 44 46 48 49 53 55 57 58 58 60 60 61 61 62 60 59 55 51 51 50 47 46 46 46 45 45
24 21 25 26 19 17 16 14 19 24 30 30 31 33 35 38 42 44 45 46 48 51 53 55 57 58 58 59 60 60 60 60 57 53 51 50 50 49 46 45 46 44 44 43
23 27 27 25 23 21 23 21 24 20 28 31 30 31 35 39 42 44 46 47 49 51 53 54 56 58 59 58 59 58 57 57 51 51 51 51 50 47 44 44 44 43 44 42
27 27 26 25 24 24 22 25 25 27 24 18 27 15 33 38 41 43 46 48 52 53 53 53 55 56 58 58 58 53 51 49 50 49 47 47 45 45 45 44 43 42 43 40
27 26 25 25 27 28 26 29 27 25 24 24 24 18 31 39 39 43 48 50 51 50 49 48 49 51 53 55 52 50 48 47 47 48 48 46 44 43 41 41 40 41 41 41
28 29 28 28 30 29 30 29 28 27 26 22 20 22 16 33 35 43 46 48 49 47 44 43 44 45 46 48 49 48 46 45 45 44 44 43 41 36 34 36 36 34 35 37
26 26 27 30 28 32 30 27 24 26 25 21 27 23 18 27 36 42 44 45 46 44 43 42 42 41 43 46 47 46 44 43 43 41 38 38 37 37 34 35 34 36 32 32
21 23 24 28 28 24 27 26 24 13 18 19 27 21 23 31 35 41 43 43 43 43 42 41 41 42 44 45 45 44 43 39 37 36 37 39 36 35 34 34 31 30 31 30
23 21 27 29 29 29 28 25 30 28 29 28 20 25 28 33 33 40 41 41 41 41 42 41 43 44 44 44 45 44 38 35 36 42 44 40 37 32 30 31 32 29 30 27
28 25 27 29 30 31 29 29 26 29 23 15 15 19 17 32 33 38 40 40 40 40 41 42 43 44 44 44 43 41 40 38 40 40 37 32 30 30 31 31 29 29 30 31
28 27 28 29 27 26 28 27 26 25 26 16 13 9 28 29 33 36 40 40 40 41 42 43 43 44 43 42 40 41 39 39 37 33 31 31 29 30 30 29 29 30 32 32
31 31 30 27 29 31 29 26 24 22 20 28 27 14 26 34 34 35 38 39 41 42 42 43 43 42 40 39 39 38 37 35 32 30 29 27 28 27 28 28 30 32 32 32
33 31 28 26 28 29 28 28 25 28 29 24 31 14 26 33 34 35 37 39 40 42 42 42 42 39 37 37 38 34 34 32 29 26 25 25 26 27 28 29 32 33 33 31
36 32 28 26 21 26 27 28 25 23 25 19 22 12 19 25 29 31 36 38 40 42 42 42 40 39 37 36 34 31 33 31 28 24 22 24 28 29 30 31 33 33 32 32
35 30 29 26 26 26 24 24 25 22 22 24 15 16 12 18 22 28 34 37 39 39 40 41 39 38 37 35 32 31 32 31 27 25 23 27 29 30 31 34 34 33 33 32
35 32 30 28 28 27 25 24 23 25 23 24 21 21 22 24 27 31 36 37 38 38 39 39 39 37 34 34 32 31 32 28 26 24 26 26 28 29 30 33 32 31 32 31
35 34 29 24 26 26 32 27 23 23 26 26 24 24 23 27 29 30 33 37 37 38 38 38 37 35 33 33 34 33 28 26 25 25 25 25 27 28 30 29 28 28 30 32
34 32 32 33 29 30 17 23 23 24 23 23 24 21 25 25 32 35 36 35 38 38 38 38 37 34 32 33 32 28 23 23 25 24 24 24 26 27 27 28 28 30 31 30
32 32 32 36 23 19 10 18 22 24 18 23 23 23 24 34 36 35 37 38 39 40 39 39 37 33 31 28 26 23 22 23 23 22 21 24 28 27 26 26 28 30 29 29
30 32 34 31 34 32 22 25 31 30 24 25 29 31 33 35 35 24 37 39 40 40 39 37 33 29 25 24 23 23 22 23 20 23 24 26 27 26 26 27 29 30 29 27
37 37 36 32 36 28 23 23 32 24 24 31 33 34 36 35 32 37 38 40 39 39 37 31 26 24 23 23 25 23 21 18 22 26 27 25 26 26 27 29 29 29 28 28
32 35 37 32 35 30 26 31 30 33 35 35 34 36 39 39 39 38 38 39 38 36 30 26 23 23 25 26 24 17 16 22 26 25 25 26 27 26 26 28 29 28 28 29
30 33 34 30 31 29 32 33 35 37 36 36 37 35 39 40 39 38 38 37 32 27 21 21 23 26 26 23 20 16 22 27 26 26 27 27 28 27 26 27 28 28 27 28
33 33 34 31 27 29 31 32 32 33 35 35 35 36 37 39 38 39 36 31 27 24 23 25 29 28 24 23 24 25 27 27 27 27 27 27 28 27 26 25 27 28 27 28
34 34 32 33 32 31 31 32 34 35 37 38 38 39 40 40 40 39 33 28 25 25 30 29 26 23 20 24 25 26 27 28 26 26 27 28 29 28 27 26 27 28 28 28
34 32 35 34 34 34 34 35 38 38 39 40 41 41 40 41 40 34 29 29 32 29 28 26 23 23 23 26 26 26 27 26 28 28 28 29 30 29 28 27 26 29 27 28

GFSCGP_sfc_dewp_027.txt.gz
Dewpoint
30 23 22 20 21 17 14 14 6 14 22 15 12 19 24 33 33 36 38 42 45 47 50 53 53 54 55 59 60 61 61 60 60 57 55 54 53 51 50 48 48 48 47 46
25 25 24 23 19 18 13 11 14 16 19 23 16 17 27 34 34 36 37 40 43 46 51 52 54 55 57 60 60 60 59 60 60 58 57 53 52 49 47 47 48 46 46 45
32 27 26 22 16 15 15 14 17 16 21 21 21 23 30 33 38 40 40 40 42 46 50 52 54 57 58 58 60 59 58 60 57 53 50 51 50 48 46 46 45 45 45 42
31 28 24 20 19 19 18 23 21 21 22 17 22 12 24 33 35 39 42 44 45 48 50 52 54 57 58 59 60 59 58 53 50 51 49 49 45 45 46 46 44 43 44 41
29 25 24 21 23 26 28 24 24 23 22 24 21 15 32 33 32 35 40 43 47 48 50 52 53 55 58 58 58 55 51 49 50 48 48 48 46 46 43 42 40 39 39 38
31 27 27 27 28 27 28 27 26 25 20 21 15 16 18 29 30 35 41 45 48 49 48 48 50 51 53 55 52 51 48 46 48 48 47 47 44 38 35 37 35 34 34 34
24 23 28 28 26 28 25 24 24 24 22 22 21 19 17 15 29 34 43 45 48 46 43 44 45 46 49 49 49 48 45 45 46 45 41 39 39 38 40 36 33 32 29 29
20 23 25 27 26 23 25 22 25 17 17 16 22 14 15 27 29 35 43 45 47 44 42 42 42 43 45 47 47 45 44 44 42 39 37 39 36 36 34 32 31 31 30 29
21 21 26 27 28 24 24 23 26 25 33 26 13 11 27 30 30 35 41 43 44 42 41 41 41 43 44 46 46 46 44 41 37 39 40 39 40 35 30 31 33 30 30 27
23 22 24 27 28 29 28 26 23 23 20 17 10 11 15 28 28 33 39 41 42 41 41 40 41 44 45 45 47 47 43 38 39 37 39 35 37 31 31 32 31 29 31 31
24 24 28 28 26 20 28 25 24 24 26 22 14 13 20 20 28 32 37 40 41 41 41 41 42 44 44 45 46 43 40 39 37 35 34 37 33 31 31 31 30 30 32 31
28 26 27 26 28 28 28 26 26 26 20 26 29 18 22 24 26 31 34 38 40 41 40 41 43 44 44 44 43 42 40 37 35 33 37 35 31 29 30 30 28 31 31 32
32 26 26 25 28 28 24 23 24 23 28 24 28 18 22 24 25 26 30 35 39 40 40 41 42 43 43 43 42 41 39 35 34 32 33 29 29 29 29 29 29 30 31 31
37 28 26 26 23 23 26 23 23 24 26 23 19 15 16 21 22 22 27 30 35 39 40 41 42 43 42 42 41 39 36 37 34 33 28 27 27 29 30 29 29 31 31 31
35 30 28 25 25 23 22 19 22 21 21 23 20 12 8 11 15 20 24 28 30 36 39 41 42 42 41 40 40 36 36 37 34 31 27 27 28 30 29 29 30 32 32 30
35 30 31 31 28 26 24 22 19 18 18 16 15 16 17 22 19 22 23 28 29 32 37 40 41 42 41 39 38 34 35 34 35 30 28 26 28 28 28 28 31 32 29 28
36 33 31 23 25 25 31 28 24 21 20 21 23 22 19 21 24 25 25 28 31 33 36 38 40 41 40 39 38 33 34 37 32 28 25 26 27 26 26 26 26 26 28 30
36 35 35 31 31 28 16 20 18 21 20 18 17 18 17 18 26 29 29 30 30 33 35 37 39 40 40 38 35 35 35 30 28 26 25 25 24 23 25 25 25 27 28 30
33 34 33 37 24 20 16 13 19 20 17 20 20 19 20 26 32 31 31 31 31 32 35 38 39 40 39 36 35 34 29 26 24 24 24 21 22 24 25 24 25 26 28 29
30 34 34 30 33 30 26 23 26 26 23 23 23 24 25 27 29 25 32 32 33 36 37 38 39 39 36 34 31 28 25 26 24 22 21 21 24 24 24 25 26 28 28 27
37 38 36 33 36 31 24 24 29 24 29 31 30 28 30 30 28 38 37 34 35 35 37 39 39 36 33 29 28 25 27 27 22 22 24 24 22 23 25 26 27 28 28 29
33 37 37 37 35 30 25 28 26 34 31 30 33 33 35 37 37 37 38 36 36 37 37 35 33 30 26 27 31 30 26 22 24 27 26 23 24 24 24 27 28 28 29 30
31 33 35 31 32 31 29 28 29 32 34 34 34 34 35 36 35 36 36 37 37 36 33 29 26 27 30 30 30 30 23 28 28 27 26 25 26 26 26 27 26 26 28 29
32 33 34 32 24 25 26 29 31 32 34 34 35 36 37 37 38 38 38 37 35 30 25 26 30 31 33 34 28 26 28 29 27 26 26 26 27 27 27 27 25 26 30 31
35 33 31 32 30 28 29 32 35 37 39 39 39 40 40 41 40 40 39 33 28 28 30 33 35 35 29 26 25 27 28 28 26 25 26 28 29 30 28 26 27 27 29 31
34 31 37 35 35 38 37 39 41 41 40 39 39 39 38 38 39 37 31 29 31 34 35 31 30 29 24 28 27 26 27 27 27 27 28 32 31 30 28 26 27 29 29 29

GFSCGP_sfc_dewp_033.txt.gz
Dewpoint
40 30 28 31 31 28 27 21 19 18 15 28 27 23 23 27 38 40 41 44 44 42 43 44 46 53 55 57 60 60 59 59 59 58 57 55 54 53 53 52 51 51 48 48
35 33 31 30 32 30 27 22 21 19 18 20 20 20 22 24 31 39 41 44 44 45 47 48 53 56 56 58 59 60 59 58 59 58 58 55 53 52 51 49 49 48 47 47
33 34 34 29 28 28 28 29 22 20 17 14 13 16 24 25 28 38 42 43 44 46 49 51 55 58 59 59 59 59 59 58 59 59 57 55 52 49 48 47 47 46 45 44
33 35 32 29 28 26 22 29 29 25 20 15 25 22 32 33 32 31 35 40 44 48 51 51 56 58 59 59 59 59 59 58 59 59 56 51 47 45 47 48 46 44 44 42
31 33 33 33 29 29 28 30 27 28 27 30 27 23 26 35 27 33 36 36 41 50 51 51 55 58 58 59 59 60 60 59 59 59 54 50 48 46 47 46 45 45 44 42
29 33 34 35 33 32 31 29 30 31 30 26 25 26 29 33 31 35 35 40 42 49 51 54 56 57 58 58 59 59 59 59 57 51 51 48 46 42 40 39 39 41 39 38
29 29 32 36 31 32 29 27 26 26 28 27 29 27 26 32 33 38 39 38 43 49 52 56 56 56 57 58 58 58 57 50 49 46 42 41 40 40 38 38 38 34 35 35
25 27 32 32 31 29 30 27 29 25 27 28 31 27 26 29 32 38 41 40 45 47 51 55 55 55 56 57 57 55 48 48 46 42 40 40 39 40 39 37 35 36 35 35
29 31 35 34 35 30 31 27 30 33 33 29 25 18 27 29 35 42 41 43 46 47 48 51 54 55 54 52 50 48 46 46 44 42 40 40 39 37 35 35 35 37 34 33
38 31 35 35 35 27 26 26 25 28 19 19 19 21 26 28 37 39 42 45 45 45 45 46 48 51 50 49 49 48 46 45 42 41 40 37 35 34 34 35 35 34 33 33
37 36 36 36 31 24 27 26 26 25 29 24 23 21 24 27 30 38 42 44 45 43 43 44 44 47 48 48 48 47 46 42 41 40 39 37 35 34 35 35 36 35 34 33
37 37 35 34 30 27 25 28 32 26 21 28 27 24 22 23 29 31 35 43 45 44 42 42 42 45 46 47 47 47 46 40 39 39 38 36 36 35 35 35 36 37 34 34
36 29 24 23 27 31 26 25 24 30 32 26 22 23 22 21 22 27 30 33 44 44 42 41 41 43 45 45 46 46 45 40 39 36 34 36 36 35 35 34 35 34 33 34
39 30 27 23 24 28 28 26 25 25 27 25 25 25 23 22 22 23 24 26 37 43 43 42 41 42 44 45 46 46 44 39 36 34 33 36 36 37 34 35 32 32 33 33
34 28 28 26 28 28 27 27 26 21 27 25 26 25 24 23 22 24 26 29 28 29 36 41 41 42 44 45 46 46 44 39 36 35 35 37 38 35 36 34 34 34 34 32
35 31 31 30 31 28 27 27 26 25 25 23 23 24 23 24 24 24 25 25 26 29 31 33 39 45 45 46 46 45 40 38 37 36 37 37 37 35 35 32 31 31 32 33
35 34 31 27 27 25 21 24 24 26 26 24 21 24 27 26 26 26 27 28 30 31 32 32 34 40 45 46 46 43 40 41 39 40 38 38 39 35 31 30 29 29 29 30
38 35 32 27 26 13 24 24 19 19 22 22 21 22 26 25 28 30 30 32 32 32 32 32 35 36 41 46 46 42 40 38 39 38 34 33 32 30 31 29 29 31 32 32
40 35 31 24 26 26 24 24 26 23 23 26 26 26 26 27 28 36 36 35 34 33 33 34 37 39 41 41 37 36 37 38 33 31 30 31 32 30 30 31 33 34 33 30
36 38 28 28 23 16 28 25 28 26 25 31 31 32 31 30 29 35 36 37 36 36 34 31 33 35 35 34 31 31 32 31 32 32 31 31 32 33 33 34 34 32 29 28
30 30 26 25 24 29 34 28 31 20 26 34 33 33 34 32 35 37 38 37 36 31 30 31 33 33 33 33 33 33 33 31 31 32 34 35 35 34 34 33 30 29 29 30
31 31 27 31 29 26 32 29 24 36 35 33 33 35 36 38 38 39 39 38 32 28 30 33 34 33 34 33 33 32 31 31 32 34 35 34 32 31 30 30 30 29 29 28
31 37 33 33 33 38 31 30 34 34 36 38 39 41 41 42 41 40 33 28 28 30 33 34 33 32 32 32 33 33 33 33 34 34 33 32 32 32 30 29 28 28 28 28
34 36 34 32 33 32 32 40 41 41 41 40 37 37 39 38 32 29 31 32 34 34 35 35 34 32 32 32 31 32 32 32 32 32 32 32 32 31 30 30 30 29 28 26
36 34 33 32 34 40 40 41 39 39 39 36 35 34 33 32 32 33 33 34 35 35 35 33 33 33 31 29 29 31 31 32 31 31 31 29 30 30 30 31 30 29 27 28
36 35 32 32 40 38 38 38 38 37 36 36 35 33 33 34 33 33 33 33 32 32 32 31 31 30 30 30 30 30 30 30 30 29 28 28 27 28 29 29 29 30 29 30

GFSCGP_sfc_dewp_036.txt.gz
Dewpoint
39 31 28 30 30 29 29 28 26 20 21 31 29 24 27 41 45 45 41 42 45 52 53 53 54 55 55 54 58 59 58 58 57 57 56 54 53 53 53 52 51 51 49 50
33 30 33 32 32 31 29 28 25 23 22 29 27 23 24 35 41 43 41 41 42 43 46 50 52 53 53 54 58 59 58 58 57 57 56 54 53 53 52 51 51 48 48 46
31 31 35 33 29 27 28 27 26 26 21 15 18 22 27 25 37 41 42 42 42 42 44 47 51 53 53 58 59 58 58 57 58 58 57 53 51 49 48 47 47 46 46 45
31 33 33 32 30 29 26 28 25 27 20 11 22 20 28 30 29 39 41 43 43 43 45 51 53 54 56 58 60 59 58 58 58 58 56 52 50 48 47 47 46 44 44 43
26 32 31 31 30 31 29 31 29 27 26 26 25 20 22 33 27 32 35 42 44 45 47 54 55 56 57 58 58 59 59 58 58 58 56 52 48 47 48 47 45 44 43 40
29 34 33 33 33 32 34 30 31 33 30 23 27 23 23 29 27 28 31 37 43 48 51 55 58 58 58 58 59 59 58 58 58 58 56 51 48 46 47 45 44 43 38 38
30 31 33 36 30 33 31 28 25 23 25 23 30 25 25 27 32 33 32 40 43 50 52 56 57 58 58 58 58 58 59 58 58 55 53 49 46 45 45 42 41 37 37 36
25 25 31 35 32 31 30 26 26 20 23 24 31 27 28 29 29 34 37 40 49 50 53 55 57 57 58 58 58 58 58 54 48 45 45 43 41 41 40 40 37 38 36 35
29 30 35 34 35 33 28 27 30 31 31 27 27 22 26 32 34 39 40 41 46 49 54 55 56 56 57 57 57 56 51 47 42 40 40 40 40 40 40 42 42 39 36 35
33 29 34 35 34 32 29 28 25 28 22 22 20 21 24 32 34 40 39 40 46 49 54 55 55 55 55 55 54 50 47 44 41 40 40 38 40 40 40 38 38 34 35 36
35 29 31 36 32 29 26 25 26 26 27 21 22 20 20 30 37 38 40 42 46 47 51 54 54 54 53 51 49 47 46 43 40 39 38 37 35 36 36 36 36 35 35 35
36 35 31 30 33 33 26 27 29 25 19 27 25 22 27 27 33 41 42 44 46 46 48 51 52 53 51 50 48 47 45 43 40 39 37 35 36 41 38 36 37 36 35 36
35 32 26 25 25 31 27 25 28 31 29 24 22 23 24 23 22 31 41 43 46 45 44 45 47 50 50 49 48 47 45 43 40 39 37 35 35 34 34 36 37 37 36 34
36 30 27 24 21 27 27 28 28 26 26 25 25 24 25 23 22 21 27 32 43 45 43 42 43 46 49 49 48 47 45 42 40 36 34 34 34 35 35 37 36 35 34 34
33 27 27 26 28 30 28 27 27 24 25 23 23 25 24 23 23 24 25 27 33 42 42 43 42 42 44 46 47 47 44 43 41 39 38 41 40 38 39 36 35 35 34 33
34 27 28 27 29 27 26 25 24 25 25 27 25 25 26 25 27 27 28 27 29 31 32 34 41 42 44 45 47 47 44 43 40 39 40 41 39 36 36 35 33 32 33 32
33 33 28 26 26 24 22 24 24 25 27 25 21 24 26 25 24 25 29 30 30 31 32 34 35 44 45 46 47 45 41 41 41 41 40 40 38 36 35 33 32 31 32 33
34 33 29 25 23 16 26 26 25 25 24 24 24 25 29 31 33 33 32 32 31 32 33 35 38 40 44 46 43 42 42 42 41 38 37 36 34 33 33 33 33 34 34 33
39 34 30 23 23 25 24 22 21 23 25 28 26 27 27 32 35 35 36 36 36 36 36 37 37 36 37 39 40 40 37 33 32 31 32 33 33 32 33 34 35 35 33 33
36 36 30 28 20 16 25 26 26 28 25 31 32 31 32 31 31 34 37 37 32 32 32 33 33 33 33 32 32 32 32 31 31 32 33 33 34 36 36 36 34 33 32 29
29 29 25 22 21 24 29 29 29 17 21 32 33 33 32 33 34 36 34 31 31 32 33 34 33 32 33 33 31 31 31 32 34 35 36 38 38 37 35 33 32 29 29 29
28 28 24 30 24 21 34 27 24 29 35 34 36 36 38 40 40 36 30 30 32 33 33 32 32 33 33 32 32 32 33 34 35 36 37 36 33 32 31 31 31 30 29 27
29 30 29 31 30 34 32 32 36 36 38 39 41 42 42 39 30 30 30 32 33 33 32 32 31 32 33 33 32 31 32 34 35 34 32 32 32 32 31 30 28 27 27 25
34 39 34 33 36 39 40 40 40 41 37 36 37 37 34 32 33 33 34 34 34 34 33 33 32 31 31 31 31 32 32 32 32 31 31 31 31 31 30 29 29 28 25 24
35 34 33 36 39 39 39 38 37 36 35 34 34 34 34 34 33 34 34 34 33 32 33 32 31 30 29 29 30 31 31 31 30 30 31 30 28 29 29 29 30 29 28 27
35 33 31 30 38 38 38 38 38 36 35 34 33 33 33 33 32 32 32 32 32 31 31 31 31 30 30 30 29 29 30 29 29 29 28 27 27 27 28 28 28 30 30 30

GFSCGP_sfc_dewp_042.txt.gz
Dewpoint
37 30 27 27 27 28 28 27 26 26 24 33 32 29 40 45 48 50 51 52 53 54 54 56 57 57 57 58 57 58 57 56 57 55 55 54 53 54 53 52 52 51 50 49
30 29 30 31 31 31 28 26 25 25 26 28 26 28 36 44 46 50 50 52 52 54 55 56 57 58 58 58 57 57 57 57 57 57 55 54 53 53 52 51 51 51 49 48
28 27 33 32 28 27 26 26 26 26 26 21 25 24 24 36 45 49 50 51 50 52 55 56 57 57 58 57 56 57 57 57 57 56 54 52 51 51 50 50 49 49 48 45
30 32 31 30 29 26 24 28 29 28 25 18 22 15 24 27 41 43 47 48 47 47 53 56 57 57 58 57 56 57 57 57 56 56 54 52 51 50 49 49 48 47 46 44
27 31 31 30 28 29 25 31 30 29 26 25 23 19 19 29 29 40 43 46 46 46 51 54 56 57 57 56 55 56 57 57 56 56 54 52 50 50 48 48 47 45 45 43
28 32 31 30 32 30 31 28 28 30 27 23 24 21 22 26 28 29 39 44 45 44 50 52 54 55 55 55 56 56 57 56 57 56 55 53 51 49 49 48 46 44 42 41
29 29 31 34 29 32 29 27 23 22 24 22 27 26 26 26 27 30 32 37 42 44 46 49 50 53 54 55 56 57 57 57 57 57 56 54 52 52 50 49 47 43 38 37
23 21 29 33 28 27 28 27 25 18 20 20 28 25 23 29 33 37 33 32 40 43 45 48 50 53 54 55 56 57 57 57 57 56 56 55 54 53 52 50 48 43 38 36
26 24 33 34 34 30 28 26 28 28 29 25 24 25 21 30 37 38 37 40 39 45 46 49 52 53 54 55 56 57 57 57 57 56 56 56 54 52 52 50 47 42 39 37
28 21 31 34 34 33 29 30 24 27 20 19 21 20 20 23 28 37 38 40 44 46 49 52 54 54 55 56 56 57 57 57 57 55 55 53 51 51 50 48 44 40 40 37
30 23 23 33 29 27 28 26 26 25 24 19 19 20 24 22 27 31 36 39 42 47 50 52 54 55 56 56 56 56 56 56 54 52 50 49 48 48 48 46 46 42 39 36
32 26 21 23 31 30 27 27 26 24 20 25 24 22 25 23 25 28 33 38 40 48 50 52 53 54 56 56 56 56 56 55 53 48 46 48 48 47 46 45 41 37 37 37
33 26 20 20 24 29 28 28 28 28 27 25 22 22 24 25 23 24 31 36 41 45 48 51 52 54 55 55 56 56 55 53 49 47 45 46 45 44 43 41 40 38 38 38
34 30 22 19 20 25 27 27 29 28 25 24 24 22 23 24 24 25 25 26 40 44 46 48 50 52 53 53 53 52 51 49 47 45 45 44 42 41 41 40 38 39 38 37
31 25 27 25 25 26 25 26 27 25 25 24 24 24 25 25 23 23 24 34 37 44 45 45 46 48 50 50 51 51 48 46 46 45 44 41 41 40 41 39 38 38 37 36
32 26 25 28 27 26 27 27 27 26 26 25 25 23 26 26 28 29 31 32 32 33 35 38 41 43 43 47 49 49 47 45 44 42 41 41 41 39 38 37 35 36 37 39
30 30 26 23 25 25 23 25 26 25 27 27 25 26 25 25 28 29 30 31 32 34 37 39 41 44 45 45 45 45 44 42 41 42 41 41 39 36 36 35 35 36 37 40
31 28 27 24 23 16 24 28 27 27 27 26 24 24 25 27 30 31 32 32 34 37 36 35 37 40 41 41 40 40 40 41 41 40 39 38 36 34 35 36 37 39 40 39
34 30 27 23 23 23 25 24 25 23 21 25 25 29 31 33 34 35 34 34 34 34 33 33 33 33 33 33 33 34 33 34 34 34 34 34 35 36 37 38 39 40 39 37
32 32 28 24 20 18 26 28 25 24 20 27 30 32 34 32 27 33 33 34 33 33 33 32 32 32 32 32 33 32 32 33 34 35 36 38 39 40 40 39 38 36 34 32
29 28 25 21 21 26 30 27 26 19 22 30 32 33 33 29 29 33 34 32 33 33 32 32 31 31 32 32 32 33 34 36 37 39 40 40 40 39 39 37 33 31 30 29
32 29 24 24 20 24 29 28 23 27 33 32 32 33 34 34 33 34 33 32 31 31 32 32 32 32 33 34 35 35 35 36 37 37 37 36 34 32 31 31 30 30 29 27
29 32 30 30 30 33 32 28 30 32 33 33 34 38 36 33 32 33 32 31 31 31 31 31 32 32 33 33 34 34 34 33 32 32 31 31 30 30 30 29 29 28 27 25
32 34 31 31 33 35 37 38 38 39 37 39 40 37 34 32 33 32 32 32 31 30 29 29 30 30 31 32 32 32 32 32 30 29 29 29 29 29 28 28 28 27 26 26
34 34 34 32 37 37 37 37 36 36 36 35 34 33 33 33 32 33 32 31 31 30 29 29 30 30 29 30 31 31 30 29 28 28 28 28 28 27 28 28 27 27 27 28
36 34 32 30 35 34 34 36 36 35 34 34 34 33 33 33 33 32 31 30 29 29 30 30 29 29 30 29 29 29 30 30 29 28 28 27 27 26 27 27 26 28 29 30

GFSCGP_sfc_dewp_048.txt.gz
Dewpoint
34 29 26 21 24 22 24 21 18 24 27 31 29 26 29 45 48 45 44 45 48 50 50 52 51 52 53 54 56 56 59 60 62 58 54 50 53 56 59 59 60 60 57 56
32 28 27 29 30 27 27 23 21 25 26 27 22 21 25 40 44 44 42 44 44 47 50 51 53 53 53 53 55 55 56 57 60 58 54 52 51 54 56 58 60 59 58 56
27 26 31 30 29 28 28 24 23 22 26 24 24 20 24 33 41 45 44 43 44 45 49 51 52 54 56 54 56 54 55 56 59 59 56 54 54 56 56 57 58 56 56 55
27 28 29 29 27 28 25 26 25 25 24 18 24 15 18 26 34 41 44 46 46 46 47 50 52 54 55 56 55 55 56 57 59 60 57 55 51 52 55 57 56 55 56 55
25 30 30 28 26 28 24 27 27 27 24 24 21 18 18 26 24 32 39 43 46 46 47 48 51 54 55 56 57 56 56 56 58 59 60 57 54 52 55 58 57 57 56 54
25 31 30 26 30 29 30 29 28 28 26 24 19 19 16 18 21 22 27 38 43 46 48 47 49 52 54 56 58 59 57 56 58 59 60 60 58 55 55 57 57 56 54 53
25 25 27 31 28 32 30 27 24 25 25 24 25 23 20 22 25 28 29 30 35 44 48 49 48 51 54 57 59 59 58 56 57 58 59 60 60 59 58 57 57 56 53 51
21 21 26 28 26 25 28 26 26 21 23 22 26 20 19 25 27 31 35 37 37 37 44 48 50 51 54 57 59 59 57 57 57 59 59 60 61 60 59 58 57 56 53 51
21 18 26 30 30 27 29 27 28 27 32 28 20 22 22 25 26 28 33 36 36 36 39 44 47 50 53 57 59 60 58 57 57 59 60 60 60 60 59 59 58 54 52 52
26 21 29 32 32 33 30 30 27 28 23 20 19 19 15 19 20 24 25 31 38 42 41 42 44 48 52 55 58 60 59 58 57 59 60 59 59 59 59 59 55 54 53 52
25 25 30 32 30 26 30 28 28 27 26 23 20 18 22 20 23 27 29 32 35 41 44 46 47 49 51 53 56 58 58 57 57 58 59 60 59 59 59 58 57 56 55 52
27 26 24 24 29 30 25 25 28 26 22 26 27 21 22 25 27 28 28 32 37 40 44 48 50 52 52 53 54 55 56 56 57 58 59 59 59 58 58 57 57 56 52 49
30 26 23 22 25 29 25 26 26 28 30 25 31 23 25 27 28 28 28 31 37 41 43 47 51 52 53 54 55 55 57 57 57 57 57 57 56 56 55 53 52 51 49 46
35 25 23 21 19 20 25 24 24 26 28 25 26 22 23 24 24 26 29 29 30 35 43 47 50 52 53 55 56 57 58 58 57 55 54 53 53 52 51 50 48 47 45 43
32 25 25 21 19 17 18 17 22 23 25 24 25 23 24 25 26 26 29 30 34 36 43 47 49 51 53 55 56 56 57 56 55 54 52 51 49 48 48 48 47 45 42 41
33 25 27 25 23 21 19 18 18 22 20 23 25 23 25 28 29 29 29 33 36 41 43 45 46 47 48 50 51 53 52 51 51 50 48 46 45 45 44 42 42 41 40 40
34 30 28 23 26 25 29 28 23 23 27 28 25 26 26 27 28 30 32 35 38 40 41 42 42 43 45 48 49 49 48 48 47 46 44 43 41 40 40 39 38 39 41 43
35 33 32 29 31 31 23 27 26 26 26 26 26 25 26 26 28 32 34 37 37 37 39 41 41 42 44 45 46 46 45 45 44 42 41 39 39 39 39 39 40 42 43 42
37 35 33 36 28 24 24 26 28 28 25 25 26 25 24 29 33 34 36 37 37 39 39 40 40 41 41 42 42 42 41 41 40 39 38 38 39 39 39 40 41 42 41 40
36 37 37 32 29 32 26 26 29 27 28 25 26 27 28 32 33 30 37 37 37 38 38 38 39 39 39 40 40 40 39 39 38 38 38 38 39 40 40 41 40 39 37 35
34 35 36 34 35 30 29 28 29 26 29 28 27 30 32 33 32 37 37 37 36 36 37 38 38 38 39 39 39 38 38 37 38 38 39 39 40 38 36 35 34 34 32 32
33 34 36 35 37 33 31 28 28 32 36 33 35 34 37 36 39 37 36 35 35 35 35 36 37 37 38 38 38 37 37 38 38 37 34 33 32 29 29 30 30 29 29 30
32 35 35 33 33 36 35 32 33 36 33 35 35 35 37 38 37 36 35 35 34 34 35 35 36 36 36 36 36 35 35 35 34 32 30 29 28 28 28 28 30 28 29 30
34 37 37 36 32 34 36 33 35 34 35 34 35 36 39 37 37 35 35 34 34 33 34 34 35 34 34 33 32 31 30 28 28 28 29 29 28 27 26 25 22 20 23 23
34 36 35 36 35 36 37 37 36 36 37 37 35 37 37 37 36 35 34 34 33 33 34 33 33 32 31 30 29 28 28 28 26 27 25 25 23 17 14 13 16 19 21 22
35 35 37 36 36 39 35 37 39 38 37 37 37 37 37 36 35 35 34 33 33 33 32 32 31 29 28 27 26 26 26 25 24 20 17 20 20 19 15 13 14 22 21 19

GFSCGP_sfc_dewp_051.txt.gz
Dewpoint
29 26 24 24 23 19 17 16 13 18 26 27 29 26 35 39 40 41 42 43 43 47 49 51 52 52 52 53 54 55 57 58 59 55 53 49 53 53 53 56 59 60 60 60
28 27 25 26 25 23 20 20 17 22 23 24 25 23 26 35 39 38 40 41 42 44 47 49 52 52 52 53 54 55 55 55 59 57 53 51 49 50 51 54 58 58 59 58
27 25 27 26 24 21 20 22 21 22 29 20 20 17 18 22 34 37 37 38 39 42 46 49 49 50 53 53 54 54 55 56 59 58 54 51 49 50 51 52 55 58 59 58
26 25 26 26 24 21 20 22 23 21 20 16 24 15 26 22 28 35 37 37 37 40 44 47 50 50 51 52 54 54 54 54 55 56 55 54 49 47 50 52 54 57 59 59
24 24 26 26 25 24 22 26 23 22 22 22 25 18 24 22 22 27 36 38 38 39 42 46 49 50 52 53 55 56 54 53 54 56 57 55 54 50 51 54 57 59 59 58
23 25 26 26 26 26 25 26 25 26 23 22 20 20 19 22 18 21 26 34 39 39 41 43 46 49 51 53 56 56 54 53 54 55 57 58 56 54 50 54 57 58 58 57
23 24 26 27 26 29 26 25 24 24 23 24 22 17 17 32 22 21 24 26 33 39 41 42 43 46 50 53 56 57 54 52 53 55 56 58 58 57 55 54 58 57 57 56
21 20 24 26 25 27 26 25 27 25 26 24 25 18 17 24 24 24 25 29 31 34 40 42 43 45 49 53 55 56 55 55 53 56 58 59 58 59 58 59 58 58 58 58
21 20 20 22 25 24 27 24 26 26 30 29 23 20 27 23 18 23 24 30 33 35 35 39 43 46 48 54 57 58 57 56 56 59 61 60 61 61 61 61 61 60 60 55
22 21 20 23 25 26 26 29 26 28 25 24 17 18 17 20 19 19 20 25 33 37 36 37 41 44 48 51 57 59 59 57 57 57 59 59 59 61 61 61 61 60 58 55
22 23 24 29 28 24 27 28 27 26 26 28 23 20 22 19 20 21 23 24 27 36 41 42 42 44 46 49 54 58 59 58 57 57 59 60 60 60 60 60 60 58 57 55
25 26 26 26 25 25 25 27 28 28 26 26 27 24 22 24 22 24 25 25 27 31 40 45 46 47 48 50 53 56 58 57 57 57 58 60 60 60 60 60 58 58 57 54
27 24 24 23 26 27 27 27 26 29 28 26 32 25 23 22 23 23 24 24 28 33 36 44 49 50 50 52 53 55 56 55 56 56 57 59 58 57 57 55 53 53 51 50
36 26 25 23 22 23 24 23 22 25 31 27 23 21 23 23 23 24 24 27 28 34 36 38 44 49 51 53 54 54 56 56 57 56 56 56 56 55 54 53 51 49 47 45
34 26 24 21 20 19 19 20 20 20 23 25 24 20 22 23 23 24 25 26 26 28 33 39 42 47 50 53 55 56 57 57 56 54 53 52 53 52 51 50 49 47 45 44
31 28 27 22 20 19 17 16 16 15 18 20 20 19 21 22 21 24 27 27 28 31 33 39 44 48 52 54 55 55 55 55 55 53 51 50 49 49 47 47 46 45 44 43
33 32 27 26 22 22 27 21 18 17 18 20 21 22 22 22 22 24 25 27 31 36 40 44 46 48 49 51 52 51 51 51 49 48 47 45 44 43 43 41 41 41 42 43
34 31 31 32 33 28 24 23 22 22 21 20 21 21 22 21 21 25 28 30 36 40 42 43 44 45 46 47 47 48 46 46 45 44 42 42 42 41 41 41 41 42 43 42
35 36 35 34 30 24 21 24 24 23 21 20 21 23 22 22 28 31 32 35 39 40 40 41 42 43 44 44 44 43 43 42 42 41 40 40 41 41 41 41 41 42 42 41
31 37 38 35 29 28 28 24 25 24 28 23 23 24 24 24 32 27 35 38 38 39 39 40 41 41 42 42 42 41 40 40 39 39 39 40 40 40 41 42 41 40 40 36
36 38 38 36 33 28 25 24 26 28 30 27 25 24 27 26 30 35 38 38 38 38 38 40 40 40 40 41 41 40 40 39 39 40 40 40 40 40 40 38 37 34 33 32
35 34 38 37 35 33 33 29 28 32 35 32 31 30 32 32 39 38 38 37 37 37 38 38 39 40 40 40 40 38 38 39 39 39 38 37 36 33 33 33 30 28 29 31
33 36 36 33 33 37 36 35 33 32 32 36 34 32 34 38 38 38 37 36 36 36 37 38 38 39 39 39 39 38 38 37 37 36 34 32 29 26 26 27 28 27 28 29
31 33 36 35 34 33 36 35 34 35 35 35 35 33 36 39 38 37 36 36 36 35 36 37 38 37 38 38 37 37 36 34 33 30 29 28 27 26 25 22 17 18 23 23
29 29 32 32 31 31 32 37 39 35 36 35 34 34 36 39 37 37 36 36 35 35 36 37 37 37 35 33 32 31 30 29 27 27 25 25 22 19 15 15 16 20 23 22
28 32 36 35 29 39 38 37 39 37 37 38 36 35 38 37 37 36 36 36 35 35 36 35 35 34 31 30 29 29 28 26 25 22 20 24 23 20 14 12 19 22 21 21

GFSCGP_sfc_dewp_054.txt.gz
Dewpoint
27 23 21 23 25 24 20 16 14 22 27 26 30 30 40 40 38 38 41 42 44 47 49 51 51 51 50 51 53 52 52 53 52 55 54 53 54 53 53 54 58 61 60 61
25 24 24 24 25 24 22 19 17 17 24 22 18 21 39 41 45 39 40 41 43 45 48 51 51 51 51 52 53 53 53 51 52 56 56 53 53 54 54 54 59 60 61 61
25 25 27 23 25 22 20 17 17 22 27 23 19 16 17 36 41 36 39 41 42 44 48 49 51 51 52 54 55 55 55 54 56 57 56 54 52 52 53 53 56 59 60 59
25 25 25 25 24 22 19 16 18 23 23 18 24 17 17 21 27 33 35 39 41 43 47 49 50 52 52 54 55 55 55 55 56 58 56 54 51 48 51 52 56 57 60 60
24 24 24 25 23 24 21 25 24 20 18 20 20 22 21 23 23 28 35 36 39 42 46 49 49 51 53 54 54 55 55 55 56 58 58 57 53 52 51 55 55 58 60 60
23 23 23 23 24 24 24 25 26 24 22 22 19 21 25 23 25 27 31 35 36 38 44 47 50 50 51 52 55 56 55 54 55 58 58 58 57 54 53 54 56 59 59 59
22 21 21 24 24 25 24 24 24 25 24 25 22 21 23 29 30 25 30 32 37 39 41 44 48 50 51 51 53 55 55 54 55 56 57 57 59 58 55 55 56 58 58 58
21 20 20 25 25 25 27 25 27 25 29 27 31 24 20 27 28 26 25 31 34 38 41 42 45 49 51 53 54 54 54 54 54 55 57 59 58 60 60 58 56 58 58 58
22 20 20 25 25 24 27 25 26 26 32 33 30 27 28 27 24 20 23 26 31 35 39 41 43 46 50 52 55 56 55 54 54 56 58 58 60 60 61 60 60 59 59 59
25 24 22 22 24 25 23 27 27 25 27 26 22 22 23 24 20 20 22 28 33 38 40 39 41 45 48 52 56 58 57 55 55 56 58 58 60 60 60 58 61 61 59 57
25 26 25 22 22 21 22 24 30 28 26 28 27 24 31 27 24 23 27 27 31 39 41 42 43 45 47 51 54 58 58 57 58 59 59 59 59 59 60 61 60 60 58 57
26 29 25 22 22 23 23 26 28 30 26 30 34 28 26 32 26 27 27 27 36 35 42 44 45 46 47 50 54 57 58 59 60 60 60 60 60 61 60 60 59 58 57 56
27 26 25 21 25 26 24 25 26 29 31 30 34 29 24 25 24 26 28 28 29 34 40 45 47 48 49 51 53 57 59 58 59 58 60 60 60 58 56 55 54 53 52 50
34 29 26 25 28 27 26 23 28 30 32 31 32 29 29 24 25 23 27 28 27 33 34 42 47 49 51 52 54 56 58 59 58 58 58 57 56 54 53 52 50 49 47 46
34 28 29 24 22 24 24 23 23 24 24 32 33 24 23 25 28 32 35 30 28 28 33 37 44 49 52 53 54 56 58 57 56 56 55 54 53 52 51 49 48 46 45 45
33 30 30 28 23 22 21 21 20 20 20 19 21 24 24 24 25 32 32 29 28 29 28 32 40 47 51 53 55 57 57 56 55 53 53 52 51 51 50 48 46 45 44 43
34 32 29 28 26 23 23 23 20 19 21 20 21 24 24 22 22 24 25 26 29 30 32 37 42 47 52 55 57 56 55 55 53 51 51 50 48 47 46 45 43 43 43 43
32 33 31 32 33 24 24 24 22 22 22 19 17 18 20 22 23 24 28 32 32 35 40 44 49 52 54 54 53 52 51 50 48 47 45 45 44 42 42 42 43 43 43 43
35 36 36 32 29 27 24 25 24 24 23 23 22 21 20 21 30 33 33 37 40 42 45 46 47 49 50 49 49 47 47 45 44 43 43 42 42 42 42 41 42 43 42 42
34 36 37 38 29 27 33 28 25 27 26 26 24 27 26 26 33 31 36 38 42 42 43 43 45 45 45 45 45 44 43 42 41 41 41 42 42 42 42 42 42 41 41 40
34 34 36 35 34 31 28 28 28 27 30 33 30 30 33 32 34 38 38 40 40 40 40 42 42 42 43 43 42 41 41 40 40 41 41 42 42 42 41 40 39 39 36 36
32 33 36 36 35 32 33 30 28 33 37 39 36 37 41 38 41 40 39 39 39 38 39 40 41 41 42 41 41 40 39 40 40 41 40 40 39 38 37 36 33 31 33 33
32 32 35 34 34 41 39 37 38 40 40 40 40 37 38 42 40 39 39 39 38 38 38 39 40 41 41 40 40 39 39 40 39 38 37 36 34 32 30 31 31 31 31 30
34 34 35 36 32 33 40 41 40 38 40 37 38 38 42 42 40 39 39 38 38 37 37 38 40 40 40 40 39 39 39 38 37 35 32 30 29 28 27 23 22 27 27 27
31 31 34 33 34 34 34 34 42 40 42 39 38 39 38 40 40 39 38 38 37 37 37 39 39 39 39 39 38 37 36 35 31 30 29 28 28 24 20 19 22 25 22 24
27 26 31 36 36 40 38 41 42 36 36 40 39 40 38 39 40 39 38 38 37 37 38 38 38 38 36 34 33 32 32 30 29 27 26 29 27 25 20 18 18 25 22 21

GFSCGP_sfc_dewp_057.txt.gz
Dewpoint
28 25 23 23 24 23 22 23 19 18 27 26 36 39 38 40 46 47 46 46 47 51 52 51 51 51 51 52 53 53 52 51 51 50 49 48 49 49 55 54 53 58 59 60
26 24 25 25 23 24 25 23 20 20 28 26 26 39 38 41 44 44 44 46 46 48 51 51 50 51 50 50 51 51 50 49 48 47 48 50 50 50 52 54 55 59 59 59
25 26 26 25 23 24 24 22 20 20 28 25 24 24 38 40 44 43 46 44 46 48 48 49 49 49 49 50 51 49 50 49 49 49 51 54 52 53 53 52 53 59 59 60
27 27 26 25 25 25 21 24 20 19 24 23 23 20 24 40 41 47 45 42 44 48 49 48 48 48 48 49 51 50 51 50 49 52 53 53 51 49 52 52 52 56 59 59
25 26 26 25 27 26 24 29 28 26 23 21 21 22 23 35 38 43 43 41 43 48 49 49 48 49 50 50 51 50 52 49 48 50 54 55 54 51 50 52 53 55 58 59
25 25 25 25 26 26 26 29 27 28 25 22 23 21 22 24 24 33 36 40 41 45 48 49 50 49 50 52 53 53 53 53 51 52 55 56 57 52 50 50 52 57 59 59
25 25 25 25 24 27 25 25 24 24 24 23 28 26 24 27 31 29 34 35 39 43 48 48 49 50 50 50 53 54 54 54 55 55 55 56 57 57 54 52 53 57 58 58
23 24 24 24 24 25 25 26 27 22 26 26 32 26 26 30 30 28 27 32 35 40 46 48 49 49 50 51 52 53 53 53 54 54 56 57 57 57 57 56 57 57 57 58
24 23 23 22 25 26 29 26 28 26 34 29 30 31 30 30 28 28 23 26 32 37 42 46 48 48 49 51 51 53 53 53 53 54 56 57 58 57 59 58 58 59 59 58
26 25 24 23 24 27 25 29 27 27 25 25 26 27 26 28 27 24 23 26 28 35 37 41 47 49 49 49 51 52 53 54 53 54 54 55 58 59 59 59 59 59 57 55
23 25 26 25 24 24 26 24 29 30 31 26 24 25 29 29 30 25 23 25 32 36 37 39 41 45 50 50 51 51 51 53 55 55 55 56 59 60 59 57 56 58 56 56
25 27 23 23 26 25 25 25 26 31 29 30 29 28 30 28 28 27 24 26 29 38 39 40 42 43 47 49 51 52 54 55 56 56 59 59 59 59 59 59 58 58 57 56
27 23 25 25 24 24 23 24 26 29 34 29 29 30 30 30 28 27 25 25 28 39 41 43 45 46 47 50 51 53 56 57 59 60 59 59 59 59 58 56 55 54 53 51
32 26 22 23 26 26 26 24 24 28 28 28 32 31 32 33 29 22 27 29 27 32 43 44 46 47 48 51 55 58 59 61 60 60 59 57 56 55 53 52 51 50 49 48
32 24 24 25 26 26 27 27 25 24 27 29 30 30 30 30 28 28 32 31 31 31 41 45 46 48 50 53 57 56 57 57 57 56 55 53 52 52 50 48 48 47 47 46
34 28 27 25 25 26 27 28 27 24 28 29 30 29 32 29 29 29 29 31 30 26 32 42 47 50 52 55 56 55 54 54 54 53 53 52 51 50 48 47 46 45 44 43
37 32 31 25 26 25 26 26 26 27 25 25 23 24 25 27 26 31 28 30 30 28 27 31 47 51 53 56 56 55 54 53 52 52 52 51 50 48 47 45 44 43 42 42
39 36 33 28 29 24 27 27 25 25 25 23 21 21 21 22 23 25 27 28 30 30 37 50 51 54 57 57 55 55 52 52 51 49 48 48 46 45 44 42 43 42 41 41
41 39 32 28 28 28 27 25 26 25 25 24 23 22 22 21 26 31 31 33 37 41 45 49 52 54 52 52 51 50 48 47 45 45 44 44 43 42 42 42 42 42 42 41
38 41 34 31 27 24 30 31 32 31 25 29 30 28 28 25 27 28 34 42 44 45 46 47 49 49 50 50 48 46 44 44 44 43 43 42 42 42 42 42 41 41 40 41
32 33 32 32 32 32 32 31 34 26 27 32 32 31 31 29 32 33 40 42 42 42 43 45 45 46 46 45 45 43 43 42 42 42 42 42 42 41 41 40 39 40 37 33
31 31 30 33 30 28 38 35 27 31 33 35 34 32 29 37 37 38 40 40 40 40 42 43 43 43 43 42 42 41 40 41 41 41 41 41 40 40 39 38 37 34 33 31
32 33 34 34 33 39 39 43 42 42 41 39 38 38 41 40 38 39 39 40 39 39 40 41 41 41 41 40 40 39 40 41 40 40 39 39 38 37 37 30 31 32 31 28
32 35 34 35 35 32 34 40 41 44 43 44 39 43 46 45 42 40 39 39 38 39 39 40 41 40 40 41 39 40 40 39 38 37 37 35 31 29 25 27 26 25 24 25
32 33 32 34 36 37 36 36 40 41 44 41 42 37 41 45 44 41 39 39 38 38 39 40 40 40 39 39 39 38 38 37 35 32 29 28 25 21 23 25 22 20 23 26
30 27 32 35 38 37 38 41 42 42 39 40 40 41 38 41 40 39 39 39 38 38 39 40 39 38 37 36 36 36 35 32 30 26 25 25 25 22 19 21 20 23 22 22

GFSCGP_sfc_dewp_060.txt.gz
Dewpoint
28 23 22 24 25 24 23 23 22 22 28 33 34 35 37 44 44 47 47 49 51 51 52 51 51 52 52 54 54 54 52 53 54 53 53 52 52 53 54 54 54 56 58 59
25 23 24 26 26 25 24 23 23 21 28 26 35 35 36 40 45 46 47 49 50 51 51 51 51 51 52 53 53 53 53 52 53 52 51 50 51 51 50 54 55 54 58 59
23 25 26 26 25 24 23 22 23 21 22 26 33 29 37 40 42 43 46 48 48 51 50 50 50 50 51 52 53 53 52 52 52 51 49 50 51 52 50 51 52 55 56 57
26 25 25 26 24 24 22 25 25 23 22 22 23 20 32 39 40 42 44 46 47 50 51 50 50 50 50 51 52 52 51 50 50 49 48 48 48 47 47 48 49 52 58 58
29 28 27 26 25 26 25 28 27 26 23 21 20 20 22 38 38 38 42 44 46 48 51 50 50 50 49 50 51 50 50 49 49 48 48 49 49 48 49 51 53 53 56 59
28 29 26 27 27 27 28 27 28 28 25 23 23 21 21 37 37 37 41 43 44 48 49 50 49 49 48 50 50 48 48 50 48 48 49 51 51 51 50 50 52 53 54 57
25 26 27 27 24 27 25 24 23 23 22 23 26 26 24 25 30 39 39 42 43 47 48 48 48 48 48 48 50 50 48 50 48 48 49 53 53 53 54 50 50 52 54 56
21 23 25 27 26 24 25 25 26 21 23 24 30 26 26 29 30 32 39 41 41 44 48 49 48 48 48 49 49 50 50 50 49 48 48 50 54 55 56 55 52 52 54 55
26 24 26 26 26 25 27 25 27 26 31 28 29 30 29 30 30 28 32 38 40 42 47 48 49 49 49 50 51 51 51 51 51 50 49 50 54 55 57 57 55 55 57 57
27 24 26 25 26 25 26 29 26 29 22 23 25 25 26 29 29 29 27 27 35 39 44 48 49 50 50 50 51 53 53 53 53 53 54 54 55 57 57 58 56 57 57 56
26 24 24 28 25 23 26 26 30 29 29 24 23 24 30 29 31 26 26 26 29 36 41 46 48 49 50 51 51 52 53 54 54 55 55 55 56 57 59 59 58 58 57 56
29 27 23 22 25 26 23 25 27 28 27 30 28 27 30 29 28 27 26 27 35 37 38 41 46 49 49 49 50 51 52 53 54 56 57 58 59 59 59 59 58 58 56 55
38 27 24 24 23 24 23 26 26 29 32 27 28 29 32 29 29 29 27 26 28 38 38 41 43 44 48 50 49 50 52 53 56 58 58 59 59 59 59 59 59 59 56 54
42 36 28 22 23 26 25 26 25 26 28 27 30 30 33 32 31 32 30 28 27 38 40 42 45 46 48 50 50 51 53 54 57 58 58 58 58 58 58 56 55 54 53 51
42 36 30 27 24 24 27 26 26 23 27 26 27 30 31 33 32 32 29 30 28 29 40 43 45 46 52 56 56 55 56 57 58 58 58 57 58 55 53 52 51 49 48 48
41 36 35 28 27 24 23 26 27 26 26 27 28 31 32 32 32 31 31 31 29 29 35 43 45 48 55 56 55 55 55 58 58 57 56 54 53 51 50 49 49 47 46 46
36 37 35 30 26 25 25 26 25 28 30 29 28 30 33 32 31 31 30 30 30 30 31 42 46 49 55 55 55 54 54 55 55 54 53 52 50 49 48 47 46 45 44 44
36 35 36 31 28 25 26 30 28 28 28 28 27 25 29 28 28 29 31 29 30 30 29 36 46 50 55 55 54 53 53 53 52 52 51 50 48 46 45 45 44 45 44 42
41 37 32 31 29 28 30 30 29 28 25 27 25 23 22 23 25 28 30 31 30 32 36 45 49 53 56 55 54 52 52 52 50 49 49 48 46 45 45 43 42 41 40 40
38 38 33 31 28 26 29 30 32 30 26 29 27 28 28 27 25 27 31 38 42 46 50 52 52 52 52 52 51 51 49 48 47 47 46 46 46 44 43 41 40 40 41 41
30 30 30 31 30 32 35 38 32 27 26 31 32 31 30 29 31 30 38 43 45 47 49 49 51 51 48 48 48 46 45 45 45 44 44 42 42 42 41 41 41 40 38 35
28 28 29 32 31 27 39 39 32 36 41 42 42 38 35 32 35 37 41 42 43 45 46 48 48 47 46 46 45 43 43 43 43 44 42 41 41 41 40 40 39 34 32 31
29 31 31 31 31 36 41 40 44 43 41 43 43 42 44 38 37 39 41 42 43 44 43 45 44 43 43 43 42 40 41 41 41 41 40 40 40 39 38 37 34 32 31 30
29 35 34 36 34 36 36 40 42 42 40 42 41 42 41 43 40 40 40 40 41 41 41 41 42 41 40 40 40 41 41 41 40 39 39 38 34 29 29 28 29 29 27 28
26 34 33 33 34 35 35 37 38 36 41 41 40 40 41 40 42 39 40 40 39 39 41 41 41 40 39 40 40 40 39 39 38 35 29 26 27 25 22 20 22 24 25 26
33 34 34 30 35 34 35 33 38 37 36 38 39 40 40 41 42 42 40 39 39 40 41 40 39 38 37 37 38 37 37 34 30 27 24 25 24 23 17 17 21 25 25 26

GFSCGP_sfc_dewp_066.txt.gz
Dewpoint
32 29 26 25 25 23 22 22 21 21 22 24 27 32 30 41 46 47 48 50 51 51 51 51 51 53 54 55 55 55 56 56 56 56 55 55 55 55 56 56 56 56 56 56
25 27 28 26 26 25 24 23 22 22 23 24 24 26 30 39 43 46 47 49 50 50 50 50 50 52 53 53 54 54 54 54 53 54 55 55 56 54 54 55 55 57 58 58
25 27 27 25 25 24 24 23 22 18 23 24 26 26 27 34 42 44 45 48 51 51 50 50 50 50 51 52 53 53 53 53 52 53 52 51 54 52 51 52 53 54 56 57
27 28 26 24 23 23 21 25 24 23 23 21 26 20 22 24 34 40 43 47 49 51 51 51 50 49 49 51 53 53 52 53 52 52 51 49 52 51 50 50 51 52 54 55
26 27 27 25 24 24 22 26 25 25 24 23 22 21 21 34 29 34 40 43 47 49 51 50 50 50 50 51 52 52 53 52 52 52 51 50 49 51 50 50 49 50 52 54
26 30 27 26 26 26 29 28 28 28 26 23 23 21 21 21 31 30 36 40 43 48 50 51 51 50 50 50 51 51 51 52 52 52 51 50 49 49 49 48 48 49 50 51
24 27 28 28 26 28 26 25 23 22 23 23 24 21 22 24 25 30 30 36 42 46 49 50 50 50 50 50 51 51 51 51 52 51 51 50 49 49 49 48 48 49 49 51
20 20 26 29 27 26 27 26 25 20 21 22 26 23 24 29 28 28 31 35 40 46 48 50 50 50 50 50 50 51 51 51 51 51 51 50 49 50 49 49 49 49 49 49
23 21 23 27 28 26 27 25 26 23 27 25 25 29 29 30 29 28 29 31 36 44 47 49 50 50 49 49 49 50 51 51 51 50 51 50 50 50 50 50 51 51 51 52
28 23 27 27 26 28 27 28 25 27 21 21 23 26 24 25 24 25 29 30 37 42 46 48 50 50 50 49 49 50 51 51 51 51 50 50 50 50 51 51 51 53 54 53
27 26 25 27 25 24 26 25 27 27 26 22 20 21 29 27 28 28 30 31 33 42 44 47 49 50 50 50 49 49 49 50 50 51 51 50 50 50 51 52 53 54 55 56
37 30 24 23 25 26 26 26 28 26 23 28 25 23 27 29 29 30 30 28 29 40 42 45 48 49 49 49 49 48 49 49 50 51 52 51 50 50 50 51 52 54 54 55
37 35 29 25 26 27 25 25 25 29 29 26 26 24 32 31 31 30 30 29 27 32 34 42 47 49 49 49 49 48 49 49 51 51 51 52 50 50 50 51 51 52 53 54
41 36 36 31 34 35 33 31 28 24 24 23 24 24 27 29 30 29 29 30 30 28 33 36 42 47 49 50 49 49 50 50 51 51 51 51 52 51 51 51 52 54 56 57
37 32 36 37 35 35 34 31 31 30 24 23 24 24 26 28 29 30 31 31 31 30 29 34 39 44 48 49 50 50 51 51 51 51 52 52 53 53 52 53 54 54 56 57
39 30 35 32 33 31 30 28 30 31 27 26 26 25 28 30 31 32 32 32 32 32 31 31 38 40 43 48 49 50 51 52 52 52 52 54 54 55 55 55 56 56 56 56
36 34 31 25 31 29 23 31 26 26 30 29 25 27 29 30 32 32 32 33 33 33 32 31 35 41 43 44 49 50 50 52 52 53 53 54 55 55 55 56 56 54 54 52
33 33 31 26 27 21 21 33 29 31 26 24 25 28 29 29 30 32 33 33 34 33 33 32 32 41 44 47 52 52 52 52 53 53 54 54 55 55 53 52 51 49 48 48
37 34 28 23 25 25 24 22 27 26 23 25 31 32 29 29 29 26 27 32 34 34 34 34 33 37 45 51 52 54 54 53 53 53 53 54 54 52 50 49 47 46 45 45
37 35 32 29 23 17 21 33 40 38 26 39 40 39 38 36 28 28 30 29 30 32 33 33 35 47 50 51 53 53 54 54 54 54 53 52 51 49 48 46 45 44 44 42
32 32 30 30 28 27 31 36 41 32 26 37 40 40 39 37 34 36 35 34 33 41 44 47 49 49 50 52 54 53 53 52 52 51 50 48 47 45 45 43 43 42 40 38
29 28 28 29 28 24 35 35 30 36 37 34 37 40 40 40 40 39 39 40 42 44 48 49 49 49 51 51 52 51 50 48 47 47 46 45 43 42 42 41 39 37 35 33
26 29 27 29 27 32 36 33 37 37 35 35 41 39 38 41 39 39 40 40 43 46 47 47 46 46 47 48 48 46 45 45 46 44 43 42 41 40 39 37 36 34 34 32
27 31 30 30 29 31 31 33 36 38 38 38 42 39 42 41 41 40 40 41 41 44 44 45 45 43 43 44 44 44 43 44 44 41 39 38 37 36 36 36 35 33 32 31
27 28 28 28 27 34 29 36 40 40 40 42 44 41 39 40 41 42 42 41 41 42 43 43 42 41 41 42 43 44 43 42 39 36 34 33 31 30 28 28 30 31 31 31
36 33 29 24 37 37 37 39 40 39 40 41 41 41 39 38 38 40 41 43 42 41 40 39 39 40 39 40 40 40 40 37 34 32 31 31 30 29 27 27 27 30 29 29

GFSCGP_sfc_dewp_072.txt.gz
Dewpoint
33 28 27 26 26 23 19 16 15 13 17 21 19 19 19 23 31 35 39 42 46 49 50 53 54 54 54 55 57 58 58 59 59 59 58 58 59 59 60 60 60 58 55 53
30 28 26 27 27 25 22 18 17 16 20 21 15 14 16 24 27 29 31 39 42 47 50 53 54 54 54 55 55 57 58 58 58 58 58 59 58 60 60 60 59 58 57 53
21 22 25 25 27 24 23 20 19 16 16 19 18 14 14 21 25 30 35 36 40 45 50 52 53 54 54 54 55 55 57 58 58 59 59 58 58 58 58 59 58 58 57 55
22 19 22 25 25 24 21 21 21 20 19 14 20 9 15 23 23 23 27 37 40 43 49 51 53 53 53 54 54 55 55 56 57 58 56 56 55 54 56 56 57 58 57 56
23 22 18 18 22 20 20 21 22 22 21 21 17 12 13 20 23 23 24 26 37 43 47 50 52 52 53 53 54 55 55 56 56 56 56 55 54 54 56 57 57 57 58 58
24 27 25 18 23 25 24 24 23 24 22 20 19 14 14 17 23 23 23 24 27 40 45 49 51 52 52 53 54 56 55 55 55 56 56 56 55 54 54 55 56 56 57 57
21 22 25 26 21 23 23 22 22 22 23 20 18 18 17 23 24 25 26 26 28 38 44 48 50 52 52 52 53 54 53 53 55 56 56 56 56 56 55 55 55 55 55 55
19 20 22 26 25 23 22 23 22 18 22 20 23 19 20 24 26 30 29 29 29 33 43 46 49 51 52 53 53 53 52 52 53 55 55 55 55 56 55 55 54 55 54 54
17 16 23 23 26 25 25 24 24 23 26 26 22 24 25 26 26 27 27 30 29 30 37 45 48 51 52 53 54 53 51 51 52 54 55 55 55 56 56 56 55 55 55 54
24 17 19 21 25 26 26 26 25 26 22 20 19 21 20 24 25 24 25 26 27 32 34 42 47 51 52 53 54 54 53 51 52 53 54 54 54 54 55 55 56 56 56 55
24 26 27 25 23 23 25 27 26 25 25 22 21 20 26 25 25 27 28 29 31 34 34 41 45 49 51 52 53 54 53 51 52 54 54 54 54 54 56 56 56 56 56 56
35 30 24 24 25 24 25 25 26 25 23 25 25 22 25 28 30 32 31 29 33 34 32 37 45 49 50 52 52 53 53 52 52 54 55 55 55 54 54 55 56 58 57 57
33 31 20 17 22 28 24 28 28 28 29 27 29 25 26 27 29 31 32 31 32 31 32 34 43 47 49 51 51 52 54 53 54 54 54 55 55 55 55 55 55 54 55 55
37 30 31 24 26 30 31 30 31 30 28 25 24 24 25 25 25 25 27 30 30 30 31 33 35 43 47 50 51 51 53 54 54 54 54 54 55 56 55 54 53 54 53 52
38 27 27 27 25 26 26 25 25 25 26 26 26 26 27 27 28 29 30 31 31 30 31 32 34 36 42 48 50 51 52 53 54 54 54 55 55 54 54 54 54 54 54 53
32 26 31 24 24 24 25 23 24 23 23 26 28 25 27 29 27 27 28 30 30 31 32 32 34 34 36 41 47 50 51 53 53 53 53 54 54 54 54 54 54 55 54 54
27 30 27 22 27 26 24 25 22 22 21 26 24 23 28 28 29 32 35 36 32 32 33 34 33 35 37 38 44 48 50 52 52 52 52 53 53 53 54 54 53 53 54 55
27 30 31 27 29 20 19 23 24 25 23 23 22 28 32 34 37 37 37 38 39 39 38 36 35 35 36 38 40 46 47 50 52 51 51 52 52 52 53 53 53 54 54 54
30 28 29 25 21 19 18 18 19 18 16 28 27 30 33 34 36 34 38 39 41 41 41 41 38 36 36 37 38 42 46 48 50 51 51 51 52 52 53 53 54 55 55 56
30 30 29 28 21 20 21 28 33 30 20 29 31 30 31 33 33 34 38 40 40 40 41 44 44 44 41 40 40 40 43 45 48 51 51 51 52 53 54 55 55 52 54 50
29 30 29 27 27 24 25 23 36 25 29 31 31 31 31 32 34 38 40 38 39 40 41 47 49 49 49 50 48 46 45 46 47 49 52 52 53 54 55 52 51 48 43 41
28 26 28 29 25 24 29 32 29 35 34 33 34 35 36 36 38 38 39 40 40 41 43 47 49 49 50 52 52 49 50 53 53 54 53 53 52 49 49 47 44 43 40 36
27 28 27 26 26 32 35 34 33 39 38 38 40 39 40 40 39 38 39 41 41 42 43 47 47 45 44 46 50 50 50 51 50 49 48 46 45 44 44 42 40 38 37 34
24 25 28 27 25 26 26 31 38 39 39 39 38 38 39 40 42 41 42 41 40 40 40 42 44 41 39 39 41 45 46 45 45 43 42 41 40 38 39 38 37 35 34 32
22 24 25 25 26 26 26 33 38 39 39 38 36 35 34 35 37 37 39 36 36 36 35 36 37 37 36 36 35 36 40 41 39 38 36 35 34 32 31 31 33 34 34 33
25 23 27 24 34 35 34 36 39 38 38 36 34 33 32 32 32 34 33 32 33 32 32 32 32 32 33 32 31 32 34 36 36 34 34 33 32 31 30 28 28 30 30 31

GFSCGP_sfc_dewp_075.txt.gz
Dewpoint
14 19 17 19 21 22 23 20 18 18 17 17 19 17 16 19 21 28 29 34 39 44 46 49 53 52 52 54 56 58 59 60 60 59 59 59 58 59 60 60 58 58 54 55
19 22 22 23 23 25 24 22 21 19 17 19 17 15 15 15 18 22 25 30 35 41 45 49 52 53 53 54 55 58 59 59 59 58 59 59 58 59 59 60 58 56 57 54
28 20 25 23 24 24 26 25 24 20 19 18 19 17 16 16 17 19 22 26 29 37 44 48 52 54 54 53 55 56 58 59 58 59 59 59 59 59 59 59 59 58 57 55
33 30 21 26 25 25 25 24 22 21 20 17 19 14 17 16 15 20 25 28 30 34 40 47 51 52 54 53 55 56 57 59 59 59 58 58 56 56 57 57 58 58 58 57
30 30 26 22 23 24 24 24 23 21 22 23 20 16 17 18 15 18 23 24 27 34 39 46 50 51 53 53 54 55 56 57 58 59 59 57 56 56 58 58 57 56 57 57
26 28 28 23 21 22 23 22 23 22 23 21 21 20 19 16 20 23 21 22 24 30 38 44 49 51 52 53 54 55 56 56 57 57 58 58 58 57 56 57 57 55 57 57
23 26 24 24 23 19 22 23 22 22 22 22 21 20 21 20 22 23 23 24 24 30 38 43 47 50 51 53 54 54 54 54 56 57 58 58 57 57 55 57 56 56 55 56
13 18 23 23 24 22 23 24 23 21 24 22 22 18 18 21 22 24 25 25 26 31 37 40 45 50 51 53 53 53 52 52 54 56 57 57 57 56 56 56 55 56 55 55
16 19 22 24 25 25 25 22 22 22 28 27 24 23 23 24 24 24 25 27 27 29 32 39 43 48 51 53 54 54 51 51 52 55 57 57 57 57 57 57 58 57 56 55
22 18 18 25 25 25 24 26 22 23 23 22 21 21 25 24 24 24 24 27 28 28 31 35 42 47 50 52 54 55 53 51 51 53 55 55 56 57 58 58 58 57 58 57
20 25 23 23 27 24 23 23 26 25 24 24 24 24 25 25 25 25 28 29 29 31 33 36 42 45 49 51 53 54 53 51 51 54 55 55 56 56 58 58 58 58 58 58
24 32 25 22 21 26 24 22 26 26 25 26 26 25 25 28 30 30 30 30 30 31 31 33 38 43 47 50 52 53 54 52 52 55 56 57 57 55 57 57 58 59 58 58
28 27 24 25 26 24 24 25 25 27 28 29 34 26 26 28 27 27 28 28 30 32 31 31 36 42 46 49 51 52 54 54 54 52 54 57 57 57 57 57 58 57 58 57
34 32 26 19 25 26 23 25 28 27 27 25 25 25 26 27 26 26 27 29 30 32 31 30 31 35 44 48 50 51 54 56 55 53 53 54 57 57 57 56 57 57 57 57
31 33 32 30 30 26 27 26 25 25 26 26 28 26 26 26 27 28 29 29 29 29 30 31 32 33 35 44 49 50 51 54 55 54 54 55 57 57 56 56 56 56 57 56
27 23 25 28 25 24 23 25 25 23 23 23 23 23 26 25 27 24 25 29 32 34 33 33 33 34 34 35 44 48 50 53 54 55 55 55 55 55 56 57 57 57 56 56
28 26 22 22 19 23 25 23 22 23 25 24 24 28 26 26 25 29 31 34 37 38 38 39 39 38 37 36 38 41 47 50 53 54 54 54 55 55 57 56 55 55 56 57
28 27 26 25 26 20 19 20 20 21 22 22 21 23 26 28 29 30 31 37 38 39 40 40 41 42 40 39 37 39 39 46 52 53 53 53 54 55 55 56 55 56 56 56
28 28 28 26 22 19 16 15 17 18 16 23 23 26 28 29 32 30 36 37 38 39 40 41 42 46 47 44 40 38 38 41 46 51 52 52 53 53 54 55 56 57 57 57
27 29 28 26 21 17 17 25 29 25 20 27 28 28 29 29 28 29 35 37 37 37 40 41 45 48 50 50 50 48 42 40 44 49 51 52 52 53 53 55 56 57 56 55
29 31 28 26 24 21 21 23 28 23 28 31 30 31 32 32 32 34 33 36 37 38 39 44 47 48 48 48 49 51 49 45 43 45 49 51 52 53 53 54 56 56 53 47
28 28 28 28 28 23 24 25 27 36 36 35 35 35 36 36 35 35 35 36 39 39 40 42 45 44 43 41 44 49 51 52 53 54 54 53 54 53 53 55 53 48 45 39
27 27 26 24 24 29 32 34 36 37 36 36 36 35 37 37 37 39 38 40 40 38 38 40 41 39 38 37 38 39 42 45 49 52 49 48 46 46 48 46 42 40 40 38
26 33 33 34 31 35 31 28 35 37 37 37 36 36 37 37 37 38 39 40 38 37 36 37 37 35 34 34 34 36 39 41 41 41 40 39 38 36 37 37 39 39 37 35
23 25 24 23 24 23 24 33 36 37 37 37 36 37 35 35 35 35 37 36 36 34 34 33 33 31 30 32 32 34 36 37 36 35 35 34 32 32 31 31 33 33 33 34
24 23 25 25 36 36 33 35 37 36 36 36 35 34 33 34 33 34 35 33 32 31 31 30 29 30 30 29 29 31 33 34 34 32 31 31 31 30 29 28 27 30 30 30

GFSCGP_sfc_dewp_078.txt.gz
Dewpoint
17 15 13 16 25 24 23 22 21 22 20 19 21 17 17 20 22 27 30 31 36 42 44 48 51 53 53 57 59 59 59 59 60 59 59 58 58 58 59 60 59 59 57 57
21 17 17 17 14 17 18 19 22 24 22 19 17 16 17 18 20 21 23 30 32 38 43 48 51 53 53 55 57 59 59 59 59 59 59 58 58 58 58 59 57 57 57 55
29 27 26 21 21 19 21 23 25 23 23 22 19 18 19 19 19 18 20 21 27 36 41 47 51 54 54 55 56 57 58 59 59 59 59 58 59 58 58 58 57 57 57 55
29 30 28 27 30 32 27 27 26 24 24 23 22 16 19 19 19 20 20 24 26 29 39 46 50 53 54 54 56 56 58 57 59 59 58 58 56 56 56 57 57 56 57 57
25 28 29 30 34 33 34 32 31 31 25 25 21 18 19 19 17 19 21 24 30 32 36 44 50 52 54 55 56 56 57 56 58 58 58 58 57 56 56 58 58 57 57 57
24 27 31 35 36 32 33 31 32 30 26 23 22 21 21 20 21 19 21 26 28 31 35 41 49 52 53 55 55 56 56 57 57 58 59 57 57 56 55 57 57 56 56 56
22 23 30 35 34 34 31 27 29 26 24 23 21 21 23 23 23 23 26 30 29 32 36 40 47 50 52 54 55 55 56 55 58 59 58 58 57 57 57 56 56 55 55 55
12 15 19 27 29 29 28 26 31 24 25 23 22 20 20 24 24 23 24 32 30 32 40 41 45 50 52 54 54 54 55 54 57 57 58 58 57 57 57 57 56 55 53 55
16 12 16 24 25 27 32 29 32 31 30 33 29 22 22 22 22 23 24 28 29 32 35 38 42 50 52 54 55 54 53 53 55 56 57 57 58 58 56 57 57 57 55 53
24 20 21 23 26 30 32 30 27 29 25 27 27 28 21 25 25 25 26 29 32 32 36 39 41 50 51 54 55 55 53 53 54 56 56 55 56 57 57 57 56 56 56 55
28 23 22 22 24 27 28 28 32 32 30 27 27 26 33 31 28 31 33 33 35 36 37 38 42 47 51 53 54 55 54 52 53 56 57 56 57 57 56 56 57 56 57 56
34 28 23 22 26 26 28 27 28 30 32 30 31 30 34 33 32 32 33 31 33 35 35 37 41 45 48 51 53 55 55 53 52 54 56 57 57 57 57 57 57 57 57 57
26 26 25 26 31 26 25 30 32 28 34 35 34 28 33 34 33 30 31 32 32 34 34 34 34 42 45 50 52 53 55 55 54 53 55 56 56 56 56 57 57 57 57 57
31 28 29 29 33 34 30 29 30 31 28 31 34 34 35 36 34 34 30 33 32 33 33 33 34 35 44 48 51 52 55 56 55 54 53 55 56 56 56 56 56 58 57 57
28 28 30 26 32 33 36 34 33 35 35 31 30 31 33 35 33 32 31 31 31 34 36 38 39 40 40 42 50 51 53 55 56 55 54 53 55 56 56 56 56 56 57 57
25 26 25 23 24 33 26 25 24 28 31 25 30 33 35 36 29 26 29 30 36 38 38 39 40 41 42 42 41 48 52 54 55 55 55 54 54 55 56 56 56 56 56 56
28 25 23 20 21 24 25 25 23 23 24 25 23 26 30 28 27 28 29 35 37 38 38 40 40 42 46 47 48 43 41 50 53 54 55 55 55 54 55 56 55 55 55 55
26 25 26 26 25 21 22 21 21 22 23 23 24 25 29 27 29 30 32 37 37 37 38 40 42 45 48 50 50 51 50 42 45 52 53 54 55 55 55 55 55 55 55 55
28 27 28 25 22 19 17 16 16 17 17 21 21 25 28 27 29 33 33 36 38 38 39 43 47 48 48 47 47 49 50 50 49 42 52 53 54 54 55 55 55 55 55 55
27 31 29 28 22 18 19 16 25 23 19 28 29 30 29 29 31 34 34 34 37 39 43 44 46 45 44 42 43 46 48 49 49 51 54 51 53 54 54 55 55 56 56 55
27 30 28 28 25 22 19 30 29 24 29 32 31 33 34 34 35 36 36 35 39 39 40 42 43 42 40 39 40 41 42 42 44 48 53 52 52 53 54 54 55 56 56 50
25 28 28 28 25 23 26 27 30 38 39 37 36 35 36 36 36 37 36 39 40 38 37 38 40 39 37 36 37 37 37 39 42 44 44 45 45 46 52 53 50 49 45 39
30 27 27 25 25 29 34 38 37 37 37 37 37 35 36 36 35 36 37 40 38 36 35 36 36 36 34 34 34 35 36 39 38 37 36 35 36 38 42 44 43 42 41 38
30 34 34 33 28 31 41 39 37 35 36 35 35 35 35 35 36 35 36 36 35 34 33 33 33 32 32 32 31 32 34 36 35 34 33 32 32 31 32 36 37 36 35 34
28 35 33 35 37 36 39 40 36 35 36 35 34 34 33 33 33 34 35 32 32 30 30 30 29 29 28 28 29 30 32 34 33 32 32 31 30 29 28 28 30 31 32 34
31 33 34 35 35 38 37 35 35 34 34 34 34 32 31 31 30 31 29 28 26 26 25 25 25 25 25 25 27 28 31 31 32 30 30 30 29 29 28 27 26 30 30 31

GFSCGP_sfc_dewp_081.txt.gz
Dewpoint
19 14 16 19 25 26 24 23 22 22 23 24 23 19 17 17 21 24 27 28 37 41 44 46 49 50 56 58 59 59 59 60 60 59 58 57 58 59 59 58 58 58 58 58
20 15 16 17 16 15 18 18 19 20 22 21 22 23 19 19 21 21 29 29 34 41 44 47 50 50 56 57 58 57 58 59 60 59 58 58 58 58 58 58 56 58 57 56
24 24 24 26 19 19 22 21 21 22 20 23 26 25 22 20 21 21 22 29 30 41 44 47 49 50 56 57 58 58 57 59 59 59 59 58 58 58 58 58 57 57 57 56
27 28 29 29 27 24 22 26 30 33 36 33 35 26 27 20 19 20 20 20 22 36 44 48 50 50 53 56 58 58 58 58 58 59 58 57 57 56 57 57 55 56 57 56
24 29 29 29 28 28 27 34 34 37 38 36 34 29 26 23 21 20 21 20 22 27 44 48 51 50 52 54 55 57 58 58 58 58 58 57 57 56 56 57 55 55 56 56
19 25 28 29 32 35 38 38 36 37 38 33 34 29 24 22 21 23 23 21 22 26 43 49 51 52 52 54 54 56 57 57 58 58 58 57 57 56 56 56 56 55 56 55
19 22 31 37 36 37 37 37 32 30 31 29 29 27 25 25 24 25 26 24 25 29 41 48 51 52 52 54 53 56 55 55 58 57 58 58 57 56 55 56 55 55 55 54
17 17 23 34 32 29 34 35 32 25 27 29 25 22 21 24 24 24 25 24 25 32 40 48 50 51 53 53 54 54 55 56 55 57 57 57 57 57 56 56 56 55 55 54
18 17 18 19 28 30 29 30 34 32 35 32 34 28 23 24 23 24 24 24 30 37 39 48 49 50 52 53 54 55 54 55 56 56 56 57 57 57 56 56 56 56 55 55
26 24 22 21 25 28 27 32 31 34 27 27 27 31 31 26 25 26 26 28 30 33 36 40 49 50 52 53 53 53 55 54 56 57 57 57 57 57 57 57 56 56 55 54
31 29 25 25 25 26 29 29 36 37 33 32 30 34 40 41 33 32 32 31 33 34 34 36 42 50 51 53 53 53 53 54 54 56 56 56 57 57 58 57 57 57 57 55
30 29 24 22 23 26 31 33 34 33 33 32 34 34 45 46 41 33 29 30 33 32 33 34 38 50 51 53 53 53 52 52 53 55 56 55 55 55 56 57 57 57 57 57
26 27 26 26 31 31 30 32 34 37 35 34 32 35 44 43 39 39 36 31 33 36 38 39 39 40 46 52 54 54 53 52 52 55 56 55 55 55 55 55 55 56 56 56
31 27 28 28 34 36 36 34 34 36 34 31 35 34 36 42 41 40 38 36 37 38 39 39 40 41 43 44 52 54 54 54 53 53 55 56 56 56 56 56 55 56 56 56
28 27 30 30 28 28 37 33 38 37 37 34 34 37 36 41 44 43 39 37 38 38 39 39 41 44 45 48 50 52 52 55 55 54 53 54 55 56 56 56 56 56 57 56
30 25 27 26 25 23 26 31 34 34 37 37 35 36 40 36 37 39 41 37 37 38 38 40 44 48 49 49 49 50 51 53 57 54 53 53 54 55 55 55 55 56 57 56
31 29 25 23 25 28 27 27 26 30 37 36 32 31 35 34 39 33 37 36 36 36 41 47 47 47 46 46 46 47 49 51 52 53 55 54 54 54 55 55 55 55 55 56
31 28 27 25 26 21 28 28 26 27 26 25 24 32 33 33 33 33 37 37 37 44 46 46 45 44 44 43 43 44 48 47 48 49 51 54 56 55 54 54 55 55 55 55
32 28 24 23 24 24 21 22 21 22 21 27 22 31 29 32 33 33 35 37 43 43 45 44 43 41 40 39 40 43 44 44 44 45 47 51 50 51 55 55 54 55 55 55
29 30 27 25 24 19 24 27 30 28 26 33 34 34 34 34 32 34 39 40 40 40 42 42 40 39 37 36 37 39 40 41 41 43 45 45 45 45 47 53 55 55 55 55
25 26 25 24 25 27 27 33 34 25 32 37 35 36 35 35 36 38 40 38 37 37 37 39 38 36 34 34 35 36 37 36 39 40 40 40 39 40 42 44 53 56 55 55
26 25 25 26 23 21 31 33 31 39 38 36 36 37 37 37 37 37 37 35 34 33 33 34 33 33 32 32 32 33 33 34 37 37 36 35 34 34 35 39 42 45 50 45
31 29 28 26 26 38 42 41 42 41 41 38 37 36 37 36 35 36 34 33 31 30 30 30 31 30 29 29 30 30 32 33 35 34 33 32 31 30 30 31 34 38 40 40
36 38 35 32 38 39 41 39 38 37 35 35 35 34 34 34 34 33 31 30 29 27 27 27 27 26 26 26 27 29 31 32 33 32 31 29 28 28 28 29 30 30 31 35
35 38 35 36 38 40 39 39 36 35 35 34 33 32 32 31 31 29 27 26 25 24 24 24 24 24 24 25 26 28 30 30 31 29 29 28 27 27 26 28 28 29 30 31
34 35 36 33 37 37 37 36 36 33 32 31 31 29 28 28 27 27 24 23 22 22 22 22 23 24 25 26 26 28 29 28 28 27 27 27 27 26 26 25 25 30 30 31

GFSCGP_sfc_dewp_084.txt.gz
Dewpoint
23 16 13 16 24 27 26 25 24 23 23 26 24 22 21 22 24 20 23 25 32 39 44 48 55 58 59 60 59 60 60 61 59 58 57 57 57 59 60 60 60 61 60 60
19 14 15 19 20 21 22 20 18 19 22 32 33 28 26 30 26 20 24 26 30 40 45 48 54 57 58 58 58 58 60 60 59 58 58 58 58 58 58 59 60 60 59 59
19 20 19 17 17 15 15 19 20 21 31 32 32 28 26 30 32 26 23 27 28 39 44 48 52 56 57 57 58 57 58 60 59 59 58 57 58 58 58 57 57 58 58 57
29 27 25 27 27 26 23 24 27 30 35 30 37 30 31 33 33 31 23 24 29 36 44 47 49 55 56 57 57 57 57 58 59 59 58 57 56 54 55 57 57 57 58 56
24 29 29 28 28 27 28 38 36 36 35 35 33 35 31 33 31 30 27 22 23 34 44 47 49 53 56 57 57 56 56 56 57 59 58 57 56 57 57 56 54 56 57 56
18 22 29 28 34 33 38 37 37 37 35 28 28 34 30 31 30 28 25 24 23 26 44 47 48 52 55 57 57 57 56 55 56 58 58 57 56 56 57 56 55 55 56 56
18 18 31 36 36 38 37 34 29 29 29 24 28 32 30 31 30 28 27 26 27 29 44 48 49 51 54 56 56 57 57 56 56 58 58 57 57 55 56 56 55 53 54 54
17 15 30 34 30 32 35 35 30 25 25 27 28 26 28 32 32 30 27 26 26 33 46 48 50 50 53 54 55 56 56 56 57 57 57 57 57 56 56 56 55 54 53 54
16 15 19 32 31 30 34 32 34 33 35 30 30 32 29 40 39 34 25 24 29 37 46 49 51 51 52 53 54 55 55 55 56 56 57 58 57 57 56 56 56 55 54 53
26 24 26 24 28 31 30 36 34 35 26 26 27 31 37 40 40 37 32 32 34 40 46 50 51 52 52 53 54 55 55 54 55 56 57 57 57 57 56 56 56 56 55 54
32 29 28 28 25 26 28 33 36 36 33 28 29 34 42 43 42 40 38 33 35 36 38 46 50 52 53 53 53 54 55 55 55 55 55 56 56 57 57 56 56 56 56 55
29 27 27 25 25 27 28 31 35 33 32 33 34 32 45 44 44 43 38 37 38 39 40 43 49 51 53 53 53 54 54 54 56 56 55 55 56 56 57 57 57 57 56 56
25 31 25 26 30 36 35 33 34 35 35 32 30 33 44 44 44 44 42 38 39 40 42 44 46 47 51 53 54 53 53 54 55 57 56 56 57 57 57 57 57 57 57 56
30 26 28 26 29 36 34 34 37 38 34 31 32 33 37 43 43 44 45 39 39 40 44 46 48 48 48 50 53 55 55 54 54 55 56 55 55 55 56 56 57 57 57 57
27 23 28 30 31 29 29 32 36 35 37 35 34 35 38 42 44 45 46 42 39 43 46 47 47 46 45 46 47 49 51 55 55 55 56 55 55 56 55 55 55 56 56 56
33 26 27 25 26 25 26 25 36 37 36 36 36 36 40 46 46 46 46 44 42 45 46 44 43 43 43 44 45 46 49 50 53 54 56 56 57 56 55 55 55 55 55 55
30 30 27 24 26 25 25 28 30 35 36 36 35 34 42 43 41 43 44 44 45 45 44 42 42 41 41 41 42 45 45 46 47 48 49 53 53 55 56 57 56 56 55 56
30 30 31 26 25 18 23 22 23 30 31 37 35 37 40 41 40 37 41 44 44 43 41 40 40 39 38 38 39 41 41 42 43 43 45 47 48 48 49 51 56 56 56 56
33 29 23 22 22 22 15 18 26 23 31 34 33 38 39 37 39 39 41 42 42 42 40 38 37 36 35 35 37 38 37 38 38 39 39 41 42 44 45 46 47 51 56 56
32 31 26 23 22 17 23 26 30 31 31 36 35 35 34 37 37 36 37 36 36 38 37 34 34 33 32 33 35 36 36 35 36 36 36 36 37 38 40 41 44 46 48 56
26 25 25 23 21 25 28 36 35 27 31 37 37 36 37 37 37 35 35 33 32 33 33 33 32 30 30 30 32 33 33 33 35 35 34 33 32 32 34 36 39 42 44 45
28 27 24 24 22 20 38 37 32 37 37 37 37 37 37 36 35 33 31 30 30 29 30 30 30 28 28 28 29 30 30 32 34 33 31 30 29 29 30 32 33 35 38 39
29 33 28 26 24 38 40 40 40 40 39 38 38 36 36 35 32 31 29 28 27 26 26 27 26 26 26 27 28 28 30 31 32 31 29 28 28 27 28 30 30 30 33 34
34 37 34 33 37 38 39 38 37 37 35 35 36 35 34 33 31 28 27 25 24 24 24 24 24 24 25 26 27 28 29 30 30 29 28 27 27 26 27 28 28 29 29 31
36 38 35 35 37 38 37 37 38 32 34 32 30 30 30 30 27 26 24 23 22 22 22 23 23 24 25 25 26 27 28 28 27 27 27 27 26 25 25 27 28 28 29 30
34 33 32 30 34 36 34 37 37 33 29 28 27 25 25 26 24 24 22 22 21 21 22 22 23 23 23 24 26 26 28 27 26 26 26 26 26 25 24 23 24 27 28 30

GFSCGP_sfc_dewp_087.txt.gz
Dewpoint
22 18 15 14 26 27 27 25 24 24 22 30 29 30 28 29 27 29 28 24 23 25 34 46 57 59 60 60 59 59 59 58 57 57 57 58 58 60 60 61 61 62 61 58
20 16 20 17 19 23 25 24 22 19 22 30 31 28 28 28 28 29 30 30 28 33 44 51 57 59 59 59 58 58 58 57 57 56 56 57 58 59 59 60 61 62 61 58
19 19 20 16 16 17 16 16 17 18 31 32 33 25 21 24 28 31 34 29 26 35 44 51 56 58 58 58 58 57 58 58 57 57 57 58 57 58 58 58 59 60 61 60
26 25 21 17 16 17 19 26 26 29 31 25 35 23 25 27 30 33 33 33 28 32 44 49 54 56 58 58 58 58 58 57 57 58 57 57 56 56 57 57 58 59 58 60
26 29 28 27 27 27 28 35 35 35 34 33 32 31 22 31 30 31 33 33 31 28 43 47 53 55 57 57 57 57 58 57 57 57 57 57 56 56 56 57 57 58 58 58
22 20 26 29 36 33 38 34 33 36 34 27 26 29 23 22 24 30 33 33 28 25 41 46 50 54 56 56 56 56 56 57 57 57 58 57 56 55 56 56 56 56 57 57
17 16 30 36 35 37 36 29 20 22 27 22 27 28 26 27 30 33 32 31 29 26 36 45 48 54 55 55 55 56 55 54 56 58 58 57 56 56 55 55 54 55 55 55
13 14 29 34 31 32 34 29 22 20 24 28 28 26 29 36 38 35 34 33 31 29 30 45 48 53 55 55 55 55 55 54 54 55 56 57 57 56 56 56 55 54 54 55
18 15 23 33 32 32 35 31 33 30 30 29 30 31 31 41 42 40 38 35 35 32 28 43 47 52 55 55 55 56 54 54 54 54 55 56 57 56 56 56 56 54 54 54
27 20 27 26 30 30 32 35 30 34 24 23 27 29 35 40 42 42 37 37 38 39 40 46 48 51 54 55 55 56 56 55 54 55 56 56 57 56 56 56 56 56 54 53
31 28 28 27 25 27 31 33 34 34 34 28 25 31 44 42 43 43 42 38 41 42 46 49 50 51 52 53 55 55 55 55 56 56 56 57 57 57 57 56 56 56 56 54
27 29 27 27 29 29 28 32 34 30 29 34 32 31 45 42 42 43 43 40 43 46 47 50 52 52 53 53 54 55 55 54 55 56 56 56 56 57 57 56 56 57 56 56
26 29 23 24 30 35 34 36 34 36 36 32 28 31 42 42 42 43 43 44 45 47 46 47 50 52 53 54 54 55 55 54 56 56 55 55 56 56 56 56 56 56 56 56
30 27 25 20 25 34 32 34 34 35 33 33 33 32 39 40 41 43 45 46 45 45 45 45 45 47 48 50 52 53 55 56 56 56 56 55 55 56 55 56 56 56 56 56
28 22 26 26 29 30 30 29 30 33 35 33 34 35 37 41 43 44 47 46 45 43 42 42 43 43 45 46 47 48 49 50 54 56 57 56 56 57 57 57 57 57 57 56
32 25 27 25 25 26 25 25 27 30 35 37 36 37 39 42 47 46 46 47 43 42 41 41 40 40 40 41 43 43 45 46 48 49 52 54 56 56 56 56 56 56 57 56
29 29 27 24 26 25 22 25 20 34 36 35 34 38 41 43 42 43 45 47 43 42 40 39 38 37 37 38 40 40 40 41 41 42 43 44 46 47 49 52 56 56 55 56
29 29 29 25 25 16 20 20 19 25 34 34 34 37 42 42 43 46 48 44 42 40 39 37 36 36 36 37 38 38 38 38 38 37 37 39 40 42 44 45 46 47 51 56
32 28 24 22 21 20 19 18 27 29 27 34 34 37 42 40 39 38 41 40 39 38 37 34 33 33 33 35 36 36 36 36 35 35 34 35 35 37 38 38 40 43 45 47
32 30 25 23 20 13 20 28 35 32 27 36 38 40 39 40 36 35 34 36 36 35 33 32 31 29 29 30 34 35 34 35 34 33 32 31 30 32 33 34 36 37 40 43
27 27 26 24 22 23 26 36 37 26 29 38 39 39 39 36 36 34 34 34 33 32 31 31 29 27 27 29 31 31 32 33 33 31 30 29 29 30 31 32 33 34 36 39
24 24 24 25 24 20 37 37 29 35 38 38 39 37 36 34 33 31 29 28 28 27 27 27 26 26 26 27 29 30 30 32 32 30 28 28 28 28 29 29 30 31 34 34
22 29 29 27 25 37 38 37 39 40 39 38 38 37 35 33 30 29 27 26 24 24 24 25 25 25 26 27 27 27 28 30 30 29 27 27 26 27 27 27 28 28 30 30
33 35 32 34 37 37 37 35 36 34 31 32 34 33 33 31 31 28 27 25 24 22 23 23 25 24 25 25 26 27 28 29 28 27 27 26 25 25 25 27 27 27 28 27
34 34 34 33 35 36 36 37 33 31 31 29 27 27 29 29 27 25 23 22 22 22 22 23 23 23 24 25 25 27 27 27 26 26 26 26 25 25 24 24 25 25 27 28
34 30 29 29 32 33 32 36 35 31 30 27 25 24 24 24 23 22 22 21 21 20 21 21 21 21 22 22 23 24 26 25 24 23 24 24 23 22 23 22 22 24 24 26

GFSCGP_sfc_dewp_090.txt.gz
Dewpoint
21 18 16 20 23 25 28 26 24 24 25 21 23 24 30 29 28 27 28 28 28 28 28 28 47 57 59 60 60 59 58 57 57 57 56 57 58 60 60 61 62 62 61 59
18 17 18 18 21 24 25 25 24 23 21 29 27 26 25 27 27 28 28 29 30 31 34 47 56 58 59 59 60 59 58 57 56 56 56 56 59 59 60 61 61 62 60 58
19 19 21 18 17 18 19 20 18 18 27 27 32 19 19 22 24 27 29 30 31 31 30 49 56 57 58 59 59 58 58 57 56 56 56 57 58 58 58 59 60 61 60 58
23 22 19 17 16 15 13 18 20 28 26 22 33 21 20 20 21 24 28 33 34 34 35 48 55 57 57 58 58 58 57 57 56 56 56 55 55 55 57 58 59 60 59 58
26 28 26 21 19 19 23 32 31 34 31 31 31 25 19 21 18 18 20 31 34 34 33 47 54 56 57 58 58 58 57 57 57 56 55 55 55 55 57 58 58 58 59 58
25 21 25 28 38 31 38 32 35 36 32 25 27 25 18 17 20 32 35 30 33 33 31 42 51 55 57 57 57 57 57 56 56 56 56 55 55 55 56 57 57 57 57 58
16 16 28 36 36 36 31 27 21 17 23 20 25 26 22 24 28 41 38 34 34 33 29 41 50 54 56 56 55 56 56 55 56 56 55 55 56 55 55 56 56 57 57 56
13 10 25 34 29 32 32 27 23 17 23 25 27 28 27 36 43 43 43 39 39 37 28 42 49 54 55 55 55 55 56 56 56 55 55 55 56 56 55 55 55 55 56 56
14 14 26 33 34 30 34 29 31 27 28 24 23 30 32 41 40 41 42 43 41 43 40 36 46 52 54 54 55 55 55 54 55 55 56 56 55 55 55 55 55 55 54 56
24 20 27 30 30 34 30 34 27 31 25 22 25 28 31 37 40 41 41 42 44 47 45 34 45 52 54 55 54 55 55 54 54 54 54 55 55 56 56 56 55 54 54 54
31 26 28 27 27 30 32 32 33 32 30 25 23 26 39 39 42 42 41 43 45 46 50 48 50 53 54 54 54 54 54 54 54 54 55 55 56 56 57 56 55 54 54 53
29 30 27 27 33 30 30 33 32 26 25 32 31 27 43 43 44 44 42 44 45 45 48 52 52 53 54 54 54 54 55 53 54 55 55 55 54 56 56 56 56 56 55 54
24 28 19 28 31 31 33 35 35 36 34 30 27 26 41 43 43 43 43 45 43 44 45 46 49 52 53 54 54 55 55 55 55 55 55 55 55 55 56 56 57 57 56 56
32 28 22 20 22 31 31 31 33 34 30 31 32 32 35 40 41 42 45 46 42 41 42 43 44 45 48 49 50 52 53 56 56 56 55 55 56 55 55 56 56 57 57 56
28 23 26 26 27 29 28 28 30 33 32 30 28 33 35 37 41 44 46 44 40 40 39 39 39 41 43 44 46 47 48 50 57 57 56 56 55 56 56 55 55 56 56 56
31 27 26 25 25 25 24 24 25 25 27 31 31 33 39 41 43 45 46 43 41 39 38 37 37 37 38 39 40 41 41 42 45 46 46 46 48 54 55 56 56 56 56 56
29 27 24 20 26 23 19 23 18 17 34 34 32 35 40 42 43 43 44 42 41 40 38 37 36 36 37 38 38 38 38 38 38 39 39 41 43 44 45 46 47 48 51 56
29 27 27 24 24 13 18 19 20 26 27 36 35 35 41 41 40 41 42 40 38 37 36 36 34 34 34 36 37 37 36 35 35 34 34 34 37 38 39 40 41 43 44 46
30 28 23 21 21 19 18 22 29 27 24 34 35 37 43 39 37 37 38 38 37 36 35 33 32 32 31 31 35 36 35 33 32 31 31 30 32 33 34 35 36 38 40 42
31 28 25 23 19 12 19 27 35 32 17 38 38 39 41 41 37 34 36 36 35 34 32 30 29 28 29 29 32 33 34 33 30 30 29 29 30 31 31 32 32 35 37 39
27 27 25 23 20 23 27 37 36 22 24 37 36 39 38 34 36 35 33 31 30 29 28 27 27 27 27 28 31 30 32 32 30 29 28 29 29 30 30 30 32 32 34 34
24 23 23 25 23 19 37 35 28 35 38 37 36 34 33 31 31 31 30 28 25 24 25 25 25 26 27 28 28 28 29 30 29 28 27 27 28 28 28 29 29 30 31 31
20 29 29 28 26 36 36 34 35 36 35 36 36 35 34 33 31 31 29 24 23 23 23 25 25 25 26 26 27 26 27 28 28 27 26 25 25 25 27 27 27 28 28 28
29 35 31 32 33 35 36 36 33 33 31 32 33 34 34 32 31 28 27 25 23 23 23 23 23 23 24 25 25 27 27 27 27 25 25 24 23 23 23 24 25 26 27 25
31 33 29 32 33 35 34 34 35 33 31 27 25 26 27 26 25 23 22 21 21 21 21 22 21 21 21 22 23 24 25 26 25 24 24 24 24 24 23 23 24 24 27 27
31 28 25 27 31 32 30 32 32 29 28 28 27 24 23 23 22 21 20 20 19 19 19 19 20 20 21 20 20 21 23 24 23 22 22 22 22 21 21 21 21 24 24 24

GFSCGP_sfc_dewp_096.txt.gz
Dewpoint
19 17 18 20 24 23 21 20 21 22 24 25 25 24 24 25 26 28 28 28 28 29 30 30 33 35 39 46 54 59 62 63 63 62 62 62 62 62 63 63 63 63 63 62
15 12 15 15 19 20 25 25 20 21 25 26 24 23 23 24 26 27 27 27 28 29 30 31 33 35 42 46 53 58 60 62 62 62 62 61 60 61 61 63 63 63 62 60
13 12 13 19 18 22 24 21 19 19 20 22 22 21 22 23 23 24 25 26 27 29 31 30 32 36 42 50 53 56 60 60 62 62 60 60 59 59 60 61 62 61 60 60
15 11 17 20 19 22 18 18 18 19 19 18 24 15 17 19 19 20 25 36 40 42 41 39 36 34 39 50 54 56 60 59 61 62 60 60 57 56 58 58 59 61 61 59
22 19 18 19 15 16 15 15 17 16 14 18 20 21 15 15 15 24 32 40 42 43 44 44 42 38 37 48 55 58 60 59 60 60 60 59 58 55 57 58 60 61 60 60
25 28 22 19 20 19 17 17 21 24 24 24 19 18 12 15 24 34 38 40 42 43 44 45 47 42 39 48 57 59 59 58 59 60 60 59 58 56 56 58 59 59 59 59
23 21 30 27 28 23 24 25 25 24 24 17 19 18 16 28 37 38 39 39 41 43 45 46 46 47 42 51 57 59 58 58 58 59 59 59 58 56 57 57 58 59 58 58
16 15 30 33 25 23 25 23 21 12 13 13 23 19 20 35 34 38 37 39 41 42 44 46 48 50 47 50 56 58 58 58 58 58 58 58 57 56 56 57 58 59 59 58
16 13 20 31 32 27 28 26 26 21 26 23 16 19 26 34 32 35 36 39 41 42 43 46 48 52 50 50 56 58 57 57 57 57 58 57 57 57 56 58 58 58 59 58
16 21 21 31 32 32 28 28 26 28 22 19 17 20 24 29 35 36 37 40 42 42 42 44 45 52 48 50 56 58 58 57 57 57 57 57 57 57 57 58 57 57 59 59
19 22 26 29 25 26 28 27 28 26 27 22 19 23 37 36 36 36 38 42 41 41 42 41 43 50 50 52 56 57 57 56 57 57 57 57 57 57 58 57 58 57 58 58
32 26 23 22 31 27 23 23 25 23 26 27 28 25 39 33 33 38 41 40 40 40 40 40 41 46 52 53 55 56 56 56 56 57 56 57 56 57 57 57 57 57 57 57
29 28 26 28 29 29 27 29 30 32 31 28 29 26 33 28 33 39 41 40 38 38 38 38 39 41 44 47 53 55 56 56 58 57 57 57 55 56 56 57 58 58 58 58
34 26 24 22 25 27 29 29 29 28 29 24 25 21 22 31 37 39 41 40 39 38 37 36 36 39 40 42 43 45 52 56 56 56 56 55 55 55 56 57 57 57 57 57
32 24 25 24 23 23 21 19 20 21 22 23 21 21 26 38 41 42 41 38 37 38 36 35 35 36 39 39 40 41 42 44 52 53 53 55 56 56 56 57 56 57 58 57
33 25 21 22 20 17 15 14 14 17 20 21 23 24 35 39 39 39 39 37 36 35 36 35 35 34 37 37 37 38 39 40 41 41 42 44 46 47 48 49 50 53 54 56
26 22 16 17 17 13 13 18 15 18 22 23 23 28 33 38 37 38 37 37 36 35 35 33 33 34 35 37 35 36 37 38 37 38 37 38 39 41 43 44 44 45 47 48
23 19 21 18 16 5 19 20 23 21 27 29 30 34 39 38 36 36 37 36 35 33 33 33 32 33 34 36 36 34 34 34 37 36 35 36 37 37 39 39 41 43 43 41
29 24 21 17 12 14 23 27 26 24 24 32 35 36 38 36 35 33 34 33 33 33 33 31 33 33 33 34 34 33 32 31 31 31 32 34 35 36 37 37 39 40 39 36
28 28 24 21 11 11 27 29 31 30 21 33 34 35 39 37 37 32 30 31 31 31 28 28 28 28 31 33 33 32 31 30 30 30 30 32 32 33 33 35 37 37 34 33
25 27 24 23 19 21 32 31 31 21 30 35 34 32 31 28 29 31 30 29 32 26 26 27 27 27 27 29 31 30 30 30 29 28 29 29 30 31 32 33 34 34 34 33
23 25 26 25 21 17 34 30 29 34 36 35 34 33 30 30 30 29 29 28 30 24 23 24 25 25 26 26 28 28 28 29 28 28 27 27 28 29 30 30 31 32 32 32
28 30 29 29 28 34 33 33 33 34 32 35 35 35 33 31 30 30 29 28 28 25 23 22 23 23 24 24 25 26 27 28 27 26 25 25 25 26 27 28 29 29 29 30
32 33 33 33 31 30 33 32 33 32 32 32 33 33 33 30 30 28 28 27 25 22 21 21 22 21 22 23 24 25 26 26 26 25 24 24 23 23 24 25 25 26 28 27
31 30 30 32 33 31 30 31 32 31 31 29 28 28 28 26 24 23 21 21 20 20 20 21 21 21 20 21 22 23 24 25 24 24 23 24 23 22 22 23 24 24 27 27
29 29 30 28 32 32 30 31 31 28 27 26 25 24 24 23 22 21 20 19 19 19 19 19 20 20 20 21 21 22 23 24 24 24 24 25 25 24 23 21 21 23 23 24

GFSCGP_sfc_dewp_099.txt.gz
Dewpoint
22 12 8 13 22 22 22 22 26 24 24 25 26 25 22 23 25 26 26 28 29 29 29 29 31 31 34 39 46 53 60 64 65 64 62 63 63 63 63 63 62 62 63 64
18 8 7 14 17 22 23 33 31 28 25 25 23 23 23 24 25 26 26 28 29 30 29 30 32 34 36 38 41 48 56 61 64 63 62 62 62 62 62 62 61 61 62 64
19 8 6 10 13 17 26 30 27 23 21 25 25 22 21 22 23 24 26 27 27 28 29 31 32 35 38 39 44 44 52 58 64 64 62 61 61 61 61 62 61 62 63 64
20 8 10 11 12 15 18 24 23 21 25 24 21 16 18 18 20 22 24 25 31 36 38 39 39 40 39 40 43 48 50 55 63 63 61 61 58 59 59 59 58 62 62 60
21 8 12 13 15 18 17 20 22 24 20 19 17 19 18 18 17 18 25 33 38 40 41 42 43 43 42 41 43 51 52 55 62 62 61 60 59 58 57 57 59 61 61 60
20 17 16 14 16 18 21 18 17 17 15 15 15 15 17 13 14 23 33 37 38 40 42 43 45 46 45 43 46 52 54 59 61 61 61 61 60 58 55 56 59 61 60 59
27 31 18 17 19 23 20 19 20 18 18 17 18 18 16 26 32 34 35 35 37 40 42 43 44 46 49 49 43 50 55 59 60 61 61 61 60 58 56 57 58 60 59 59
26 26 21 25 21 21 20 19 25 17 19 18 17 12 13 28 32 34 34 36 38 40 42 42 44 48 50 51 47 51 56 58 59 60 60 60 60 57 55 57 58 59 59 59
27 17 27 26 22 20 21 21 25 28 24 21 16 23 29 30 31 32 33 36 40 39 41 42 45 47 50 52 50 53 58 57 58 59 61 60 59 57 55 58 59 59 60 59
19 23 20 24 28 24 23 23 24 27 14 12 13 17 28 32 31 32 34 39 40 40 41 41 43 44 47 50 49 56 59 58 59 59 59 59 58 57 57 59 59 60 60 59
18 25 19 24 26 22 24 25 25 23 22 23 21 27 33 29 30 33 38 40 39 40 39 40 39 40 43 47 50 59 57 58 58 59 58 59 58 57 57 58 59 58 59 59
20 24 20 21 21 30 22 26 23 25 23 23 26 30 32 26 31 40 40 40 39 39 38 37 36 38 39 42 51 57 57 57 58 58 58 58 58 57 57 58 58 59 59 59
30 25 20 24 25 30 27 28 23 28 29 26 26 30 24 32 36 41 40 38 37 37 37 35 34 36 38 39 42 48 58 57 58 58 57 57 57 56 57 58 58 58 58 57
37 28 20 20 22 23 27 24 25 26 25 22 22 20 32 37 40 40 38 38 37 37 38 37 35 34 37 38 39 41 46 52 57 57 57 57 57 57 57 57 57 58 57 57
35 32 33 25 20 22 25 27 27 26 22 22 21 21 36 38 39 38 37 36 36 35 34 35 35 35 35 36 36 38 40 42 46 47 50 53 57 56 57 57 58 57 57 58
33 24 24 20 21 20 17 15 14 15 17 19 19 31 37 38 39 38 37 37 36 35 34 34 34 35 35 36 35 36 38 39 40 40 41 45 47 46 47 50 51 56 56 55
26 23 22 17 13 12 18 16 13 17 22 22 25 34 39 37 36 36 37 35 34 34 33 33 33 33 35 35 36 35 35 37 37 38 38 39 42 43 43 45 45 44 44 43
25 18 20 18 15 12 20 23 21 24 27 28 27 30 36 36 33 34 34 32 32 32 32 34 32 33 33 35 35 35 35 35 35 35 36 38 39 39 40 41 41 39 38 37
27 23 20 17 15 19 21 25 26 24 30 30 30 33 36 34 32 31 32 33 33 32 31 31 33 33 33 33 35 34 33 32 32 33 34 35 37 37 39 38 38 37 35 34
24 25 24 21 11 16 32 29 29 28 28 33 33 33 35 35 36 29 31 32 34 33 29 27 28 28 30 34 34 33 32 32 32 32 33 34 34 35 35 37 37 36 35 34
23 25 24 23 19 26 32 31 31 23 30 35 33 31 29 28 29 31 32 32 34 26 26 27 26 26 26 28 32 32 32 31 32 32 30 32 33 33 34 34 35 36 36 35
26 27 26 26 21 22 31 30 29 32 35 35 34 32 31 31 31 31 31 30 31 30 24 24 25 25 25 26 27 29 30 30 30 32 31 28 29 30 31 32 33 33 34 33
28 30 28 29 28 32 32 31 32 33 32 35 35 33 32 32 31 31 30 29 28 23 22 23 23 24 24 25 25 26 28 30 29 27 27 29 28 27 27 29 30 31 31 31
33 31 34 32 31 30 31 30 31 33 33 34 32 32 32 31 31 30 29 28 26 22 21 22 23 22 23 24 24 25 26 26 26 26 25 24 24 25 25 25 26 26 29 29
30 30 30 31 31 30 29 31 30 30 30 29 28 28 28 27 26 25 23 22 21 21 21 22 22 22 22 23 23 24 25 26 25 25 25 25 24 22 21 22 24 24 26 26
29 30 30 29 33 32 30 32 31 29 28 27 26 25 25 24 23 23 21 21 20 20 21 21 21 22 21 21 22 23 24 26 25 25 25 26 26 25 23 21 20 23 24 24

GFSCGP_sfc_dewp_102.txt.gz
Dewpoint
21 24 19 10 14 17 18 17 18 20 31 29 27 23 22 24 24 25 26 27 28 29 29 30 35 35 42 45 50 60 65 67 66 64 64 63 63 63 63 63 63 63 64 64
12 24 24 12 6 7 14 20 21 30 31 31 31 33 32 25 26 24 26 27 29 31 31 34 37 40 44 46 47 51 62 66 65 64 63 63 62 63 62 62 63 63 63 64
6 14 27 14 8 3 11 16 27 27 32 37 35 32 31 28 25 25 27 27 28 30 31 33 38 44 49 49 51 46 54 63 65 64 63 62 63 62 62 62 62 62 62 63
4 5 20 14 6 3 11 15 27 28 34 30 26 25 25 25 24 24 25 30 30 31 37 39 41 44 47 50 51 50 48 55 64 64 62 62 61 60 61 61 61 62 62 63
6 9 19 18 3 4 11 18 25 24 29 30 27 30 26 23 20 21 23 31 38 41 42 42 43 45 46 50 51 53 51 50 63 63 63 62 61 61 60 60 60 62 62 61
5 13 30 21 14 8 15 28 28 28 26 28 28 26 21 21 23 23 30 35 39 41 42 43 44 46 46 50 53 54 54 51 63 64 63 62 61 60 59 59 59 60 59 60
13 18 26 18 16 18 22 25 21 22 26 21 18 16 20 24 22 31 34 35 39 42 42 42 42 44 47 50 52 54 51 52 63 63 62 62 62 61 60 57 58 59 59 58
11 29 32 26 14 17 20 22 24 13 15 14 14 26 28 31 33 34 36 40 40 40 42 42 42 44 45 48 50 53 53 53 62 62 62 62 61 61 59 57 59 59 58 58
31 32 28 21 18 22 19 19 25 35 31 31 25 33 32 38 33 35 37 39 39 40 40 40 41 41 42 45 47 50 51 55 60 61 61 62 61 61 59 59 60 59 59 59
31 30 24 25 23 23 23 24 27 33 28 26 21 26 31 35 32 35 37 38 39 39 38 39 38 38 40 41 44 49 53 59 59 59 60 60 60 60 59 59 60 60 59 58
30 29 23 30 34 25 24 29 32 32 27 26 24 33 38 36 38 38 39 38 37 37 37 37 36 37 38 39 41 45 57 58 59 59 59 60 60 58 59 59 59 59 60 59
23 28 22 19 33 31 28 29 28 31 20 30 32 33 40 40 39 39 37 37 37 37 37 36 35 36 37 37 39 41 44 58 59 59 59 59 59 58 58 59 59 60 59 58
35 27 28 23 23 34 29 29 28 30 35 27 28 33 39 39 38 38 37 36 36 36 36 36 36 35 36 36 36 38 41 43 58 59 59 58 58 57 57 58 59 59 59 58
39 32 30 23 23 32 33 35 34 29 30 26 29 32 36 37 37 37 36 36 35 35 34 34 34 35 35 35 35 36 38 41 44 58 58 57 57 57 57 59 59 58 58 58
36 33 33 32 30 28 32 34 32 25 23 31 28 34 36 37 36 37 37 36 34 33 33 34 34 33 35 35 35 35 36 38 40 42 44 48 54 57 58 58 58 58 57 57
34 33 32 31 27 30 26 21 21 19 23 25 34 36 37 38 38 36 36 34 34 33 33 33 34 34 33 35 34 35 35 37 37 38 39 41 44 46 49 50 53 52 50 49
31 27 29 17 17 19 22 19 23 26 26 30 32 36 37 35 33 33 34 33 32 32 33 33 33 33 33 33 34 34 34 35 35 36 37 38 39 40 42 42 42 42 43 42
29 26 24 19 19 21 24 28 31 29 29 27 27 34 33 32 32 32 33 32 32 31 31 34 33 33 33 33 33 34 34 34 34 35 35 37 37 38 37 37 37 36 37 37
26 28 25 24 20 24 26 28 29 33 32 32 30 32 34 32 33 30 33 34 34 35 30 30 32 34 34 33 33 33 32 32 32 33 34 35 36 35 35 35 35 35 34 33
23 30 29 25 17 22 28 28 30 30 27 33 32 31 33 34 34 28 32 33 35 30 27 26 27 27 29 32 34 33 31 31 31 32 32 34 35 36 34 33 33 35 33 33
27 29 26 25 22 26 28 29 30 25 27 34 32 30 30 28 29 31 31 32 34 32 25 26 25 25 26 28 30 30 32 31 32 33 33 33 33 33 33 33 34 33 33 33
25 27 26 27 24 22 30 28 26 31 34 35 35 34 32 32 32 30 30 30 32 28 23 24 24 24 25 25 27 27 30 31 30 31 32 31 31 31 32 33 33 33 33 32
28 28 26 27 26 32 31 31 35 35 32 35 34 32 31 30 30 30 29 30 30 23 22 23 23 23 24 24 25 26 26 28 29 28 27 26 26 28 29 28 28 31 31 31
31 30 31 31 30 29 30 31 32 33 34 31 30 30 31 31 31 31 32 30 26 22 22 23 22 22 22 23 24 26 27 26 26 27 25 25 23 23 24 25 25 25 27 26
29 30 30 30 30 30 29 30 31 30 29 28 28 26 26 26 24 23 22 21 21 21 21 22 22 22 22 22 23 24 26 27 26 27 26 25 24 21 21 23 23 24 25 26
30 28 28 27 32 31 30 30 30 28 26 25 24 24 23 23 23 22 21 21 20 20 21 21 21 21 21 22 23 25 25 26 27 27 27 28 29 26 21 20 20 24 24 24

GFSCGP_sfc_dewp_105.txt.gz
Dewpoint
12 7 14 26 15 13 11 16 18 16 18 31 32 30 29 28 28 25 25 25 25 24 26 27 27 24 26 31 63 65 65 65 64 64 64 63 63 62 62 63 64 65 65 64
25 10 6 9 27 19 11 12 14 16 21 36 37 36 37 37 35 34 28 24 27 27 29 27 30 29 31 35 59 65 65 65 64 64 64 63 63 63 62 62 62 63 64 64
24 27 15 5 17 28 18 7 7 8 33 38 36 33 33 35 33 33 31 25 27 28 29 34 39 41 42 43 46 63 65 65 64 63 63 62 62 62 62 61 61 62 62 62
28 28 26 17 21 29 11 8 5 7 32 31 37 28 31 32 31 31 29 25 27 37 41 42 44 44 46 48 50 49 63 65 64 63 62 61 60 60 60 60 61 61 62 61
29 21 16 11 6 25 23 13 9 11 33 32 34 32 31 35 32 27 27 39 40 41 41 42 43 44 46 47 49 51 52 59 64 63 62 61 60 60 61 61 61 61 60 61
31 19 14 24 26 27 28 31 33 34 30 24 27 29 28 30 31 27 39 41 40 40 41 41 42 43 43 44 46 48 49 52 61 63 62 61 60 60 60 60 59 59 60 60
24 13 10 26 27 30 28 25 24 26 24 21 25 28 26 28 33 38 40 39 40 40 40 40 40 40 40 41 43 44 46 48 51 62 62 61 61 60 59 59 59 59 59 59
12 18 22 25 24 27 28 27 24 18 20 20 22 23 24 34 41 41 39 40 38 38 38 37 37 38 38 40 40 41 43 46 49 60 62 61 60 60 59 59 60 59 58 58
25 27 29 32 31 28 24 25 29 29 33 24 23 33 34 40 42 38 39 37 36 36 36 36 36 36 37 38 39 40 42 44 48 52 62 61 61 60 58 58 60 59 58 58
32 26 31 28 25 24 20 27 22 30 24 24 28 31 33 37 39 38 35 35 35 36 35 35 35 35 37 37 39 40 42 47 51 60 60 60 61 61 58 59 59 58 58 58
34 33 29 30 33 23 25 33 33 33 31 26 28 30 39 40 38 36 36 35 35 35 35 36 35 35 36 37 38 39 41 44 52 58 58 58 59 60 59 59 59 58 58 58
35 32 26 25 32 32 32 31 34 29 31 33 32 30 41 39 36 35 35 35 35 34 34 34 34 35 35 36 37 37 39 41 44 50 58 58 58 59 58 59 59 58 58 58
36 30 27 30 30 37 34 31 32 32 34 32 28 29 39 37 36 35 35 34 34 34 34 34 34 34 35 36 36 37 38 39 42 45 58 58 58 58 58 58 59 59 58 58
39 33 31 27 32 33 32 33 35 36 31 31 33 33 35 36 36 36 35 34 34 33 33 34 34 34 34 35 36 36 37 38 39 42 45 49 57 58 59 59 59 59 58 57
36 32 33 34 34 33 35 35 35 32 34 33 34 33 35 36 35 35 35 34 34 33 33 33 33 33 34 34 34 35 36 36 38 38 39 42 46 52 53 55 58 59 59 58
35 32 34 33 33 33 33 31 28 32 37 36 35 34 37 36 35 33 33 32 32 32 32 31 32 33 33 33 33 33 35 35 35 36 38 38 40 41 43 45 46 48 47 46
34 32 31 28 26 28 29 30 29 30 31 31 31 35 34 31 30 30 31 31 31 30 31 31 32 33 33 33 33 33 33 35 34 34 35 37 38 38 39 38 38 38 39 38
28 29 29 23 26 23 29 31 32 30 30 31 32 32 31 30 30 30 32 32 33 33 30 31 31 32 33 34 33 33 33 32 33 33 33 35 37 37 36 37 37 35 35 35
28 29 27 26 26 29 26 26 28 31 29 31 30 32 31 31 29 28 31 33 34 33 29 28 29 31 33 33 34 32 31 32 31 32 32 33 33 35 35 35 35 35 33 32
30 32 30 28 24 22 25 27 29 30 23 33 30 29 29 32 27 25 31 32 34 35 26 25 26 26 28 30 31 31 30 29 29 31 31 32 33 33 33 33 33 34 33 31
26 27 25 26 26 24 28 29 29 23 24 35 32 29 27 25 27 29 31 32 34 27 24 25 25 24 25 27 28 29 29 28 30 31 30 31 31 31 32 32 33 33 33 32
26 27 24 25 22 18 29 27 24 31 34 35 34 32 29 29 29 29 29 29 30 24 22 23 24 24 24 25 28 26 28 29 26 27 27 27 29 29 29 29 32 32 31 30
26 29 25 26 25 32 31 31 34 35 34 35 35 31 30 29 29 26 28 29 28 23 22 22 22 23 23 24 25 27 29 28 26 24 24 24 25 26 27 26 27 28 28 28
32 33 27 29 30 30 31 33 33 36 33 31 30 32 32 31 31 30 29 24 23 22 22 22 22 22 22 24 25 27 29 27 27 24 23 22 22 22 23 24 24 25 25 24
30 31 30 29 30 29 30 31 32 29 28 28 25 25 25 25 23 22 21 21 21 21 21 22 22 21 21 22 24 26 28 28 27 27 28 23 21 20 22 23 23 24 26 25
29 29 28 25 33 30 29 32 31 28 27 25 24 22 22 23 22 22 21 21 20 21 21 21 22 21 20 20 22 24 26 27 27 27 27 27 26 22 20 20 21 24 24 25

GFSCGP_sfc_dewp_108.txt.gz
Dewpoint
23 20 14 9 13 24 20 12 10 10 11 17 17 15 34 36 26 24 27 27 27 27 25 26 25 28 26 37 60 63 64 65 65 65 64 63 62 63 64 64 64 64 65 64
24 21 24 27 25 15 16 22 20 13 11 13 29 33 34 36 37 35 32 34 32 27 27 26 29 37 40 40 58 63 64 65 65 65 65 64 63 63 63 64 64 64 64 64
24 21 22 26 26 23 9 9 22 21 12 15 30 28 30 31 34 35 35 35 34 33 40 44 45 46 48 50 53 63 63 64 64 64 64 62 62 61 61 61 62 63 64 63
21 22 21 24 24 26 19 17 26 27 17 12 33 21 31 31 32 32 33 35 41 42 42 43 44 43 44 47 49 50 63 64 64 62 64 62 62 61 61 61 61 62 63 63
23 23 24 25 24 26 21 19 25 23 14 19 26 30 30 33 33 33 34 40 40 40 40 40 40 40 41 43 44 47 47 54 57 63 63 62 61 61 60 60 60 61 62 62
28 29 30 24 19 19 24 28 27 29 22 14 16 30 25 30 31 40 40 39 38 37 37 37 37 38 39 40 41 43 44 46 49 54 63 62 61 60 60 60 59 60 60 61
24 26 20 25 23 24 27 27 20 18 20 19 25 30 26 39 42 40 37 36 36 35 35 35 35 36 37 38 39 41 42 43 45 47 53 62 61 60 60 60 60 60 60 60
19 18 23 31 26 20 29 25 20 20 22 23 27 26 31 40 40 39 36 35 35 35 35 35 35 35 36 37 38 39 40 42 44 46 48 60 62 61 60 60 60 60 59 60
28 24 24 24 24 27 25 25 26 27 29 21 26 33 38 38 38 38 36 35 35 35 35 35 35 35 36 37 37 38 39 40 42 46 47 54 62 61 60 60 60 60 60 58
34 26 27 31 33 33 29 32 24 27 14 13 26 29 33 35 35 35 35 34 34 34 34 34 34 35 36 36 37 38 39 39 42 46 51 55 62 61 60 59 59 59 59 58
37 31 30 31 31 31 27 29 32 30 29 23 24 28 37 35 35 33 35 36 34 34 33 34 34 34 35 36 37 38 38 38 40 45 54 60 60 59 59 59 59 59 58 58
34 34 29 29 34 37 34 32 31 26 26 31 30 26 36 37 36 35 35 34 33 33 33 33 34 34 34 34 35 37 38 38 40 43 47 58 59 58 58 59 59 58 58 57
35 32 25 26 32 36 34 32 32 35 34 31 27 26 36 37 34 34 33 33 33 33 33 33 33 33 34 34 34 35 37 38 39 40 42 46 49 58 58 58 58 58 58 57
37 33 29 25 27 31 33 35 36 35 32 30 30 31 33 34 33 34 34 33 33 31 31 31 32 33 33 34 34 34 35 37 37 38 40 40 42 47 56 58 59 58 58 57
35 31 32 35 35 35 34 34 35 35 34 29 31 30 32 33 33 33 33 31 31 30 29 31 32 32 33 33 33 33 34 35 36 36 37 38 40 41 44 50 59 59 58 58
35 31 32 32 34 32 31 32 32 34 34 34 31 28 34 34 32 31 31 30 29 28 28 29 31 31 32 32 32 32 33 33 34 35 35 36 37 38 39 40 44 45 45 44
32 31 31 28 32 31 23 29 29 30 32 32 29 31 32 29 28 29 31 31 30 27 29 29 30 31 32 32 33 32 32 33 32 32 34 34 35 35 36 37 36 37 38 40
31 27 30 26 31 17 29 33 31 29 29 30 32 31 28 27 29 29 31 31 31 27 27 28 28 31 31 32 32 31 31 31 31 31 31 33 34 33 34 34 33 33 33 34
31 30 30 28 26 28 26 26 28 29 28 31 30 31 29 29 28 27 31 32 32 28 27 26 27 29 31 30 32 30 29 28 29 28 29 31 32 33 33 33 32 32 33 31
30 31 32 29 22 19 25 26 28 29 22 32 29 28 26 32 24 24 30 32 30 26 25 24 25 26 27 30 30 30 26 26 26 27 28 30 31 30 32 32 32 32 32 31
27 28 24 25 23 24 27 28 29 22 23 34 30 29 26 24 26 29 30 29 29 24 24 24 23 24 25 26 28 28 26 24 25 27 27 28 28 29 30 31 32 32 31 30
26 26 22 24 19 16 30 28 23 31 34 34 32 29 28 28 28 28 29 25 24 22 22 22 22 22 24 25 26 27 28 25 24 24 24 25 26 27 28 29 29 29 29 28
25 27 24 25 24 31 34 32 35 35 34 34 32 29 28 28 28 27 23 23 23 22 21 22 21 21 23 24 26 26 30 28 25 22 22 23 24 24 25 26 26 26 27 26
33 32 25 25 29 30 32 34 34 33 31 29 28 32 32 30 29 24 23 22 22 21 21 21 20 20 21 22 23 26 28 29 28 24 20 21 22 22 23 23 24 24 24 24
29 30 28 28 29 30 29 31 29 28 27 24 23 23 24 22 22 21 20 21 21 20 21 20 19 19 20 20 21 22 26 26 26 26 26 22 20 20 21 24 24 24 26 26
30 29 28 24 32 30 29 31 30 26 24 24 23 22 22 22 21 20 20 20 20 20 20 19 18 18 18 18 19 20 22 26 25 24 25 26 23 20 20 20 21 25 26 27

GFSCGP_sfc_dewp_111.txt.gz
Dewpoint
22 23 21 19 15 13 11 10 10 19 26 19 11 9 11 16 22 29 33 23 27 26 26 26 28 31 27 31 60 64 65 65 65 65 64 64 64 64 64 64 64 64 64 63
24 20 18 23 25 24 21 19 16 15 16 25 24 15 12 16 31 28 31 32 30 33 35 45 47 48 49 50 48 59 64 65 65 65 64 64 64 63 64 64 63 64 64 63
21 18 19 20 20 18 21 23 22 19 12 23 26 23 13 17 27 32 35 36 37 40 43 42 41 42 43 44 46 58 62 64 65 64 64 62 62 61 60 63 64 63 63 64
22 23 20 20 19 20 22 24 24 19 20 17 23 14 13 20 25 32 32 40 40 40 39 39 39 40 41 42 43 45 59 64 64 65 64 63 62 61 62 62 63 64 63 63
26 23 22 23 21 25 22 26 25 21 17 26 24 21 17 33 32 37 39 38 36 36 36 37 38 39 39 40 41 43 46 49 51 63 65 63 63 62 60 60 61 62 63 63
28 29 29 27 26 26 25 25 26 24 23 21 19 18 18 26 35 37 36 35 35 35 35 35 36 37 38 39 40 41 42 44 47 49 55 63 62 61 60 60 60 61 61 62
28 26 30 30 27 25 25 25 17 20 14 16 18 19 18 36 37 37 36 35 35 36 36 35 35 36 37 37 38 39 40 42 43 45 47 51 62 60 60 60 60 60 60 60
25 20 21 30 21 20 25 24 21 15 20 21 26 24 31 36 36 37 35 36 35 35 35 36 35 35 36 36 37 38 39 40 42 44 45 48 50 62 61 60 60 60 59 59
28 24 25 27 27 24 25 25 26 26 27 26 28 34 35 36 35 34 36 35 35 35 35 34 34 34 35 36 37 38 38 39 41 42 45 49 50 59 61 60 60 60 60 59
34 27 28 32 33 30 29 32 27 30 21 11 24 28 27 30 33 33 32 34 34 34 34 34 34 34 34 34 36 37 38 38 40 41 44 48 52 55 62 61 60 59 60 59
34 32 28 31 32 31 30 28 31 30 27 19 19 25 34 32 32 32 32 33 33 33 33 34 34 34 34 34 34 35 36 37 39 41 43 47 55 57 62 61 60 59 59 59
33 34 27 28 34 36 36 31 31 25 25 30 27 24 34 35 34 34 33 33 33 33 31 32 33 33 33 34 34 35 35 37 38 40 42 43 46 49 59 60 60 59 59 59
35 30 25 23 30 35 34 33 33 35 34 28 25 25 36 35 34 34 33 32 31 31 31 31 32 32 32 33 33 34 34 35 37 38 39 41 42 43 46 52 59 59 59 58
37 33 30 25 27 34 32 34 35 35 30 27 27 27 31 32 32 33 32 30 28 29 30 31 31 31 32 32 32 33 34 34 35 36 37 38 39 41 41 43 47 58 58 58
36 30 33 33 33 31 31 32 36 33 32 26 28 26 29 30 31 33 30 29 27 27 27 30 30 30 31 31 31 31 32 33 34 33 35 36 37 38 38 38 38 41 57 58
36 30 32 30 30 29 27 30 29 33 32 30 27 25 31 32 32 30 30 28 26 25 26 28 29 29 30 30 30 30 30 31 32 32 32 34 35 36 36 36 36 36 37 41
34 32 31 26 30 29 21 27 28 28 29 31 25 28 30 27 27 28 29 28 25 25 26 27 29 30 30 31 29 29 29 30 30 30 31 32 34 34 34 34 34 34 34 34
32 31 33 28 30 17 28 32 32 26 27 30 28 28 27 26 28 29 31 29 26 25 25 27 29 29 30 30 30 28 28 28 29 29 29 30 31 32 32 33 33 33 33 33
32 32 30 27 23 27 27 28 27 28 26 30 30 28 28 29 29 26 30 31 26 25 25 25 27 28 28 29 30 26 26 26 26 27 27 28 30 30 31 31 31 32 32 32
31 32 31 29 21 18 24 26 29 29 23 30 29 28 28 30 23 23 30 29 27 25 23 23 24 25 26 27 29 25 23 24 24 25 26 27 28 28 29 30 30 31 31 31
26 28 24 26 22 24 26 31 32 23 23 32 28 27 25 24 26 29 26 24 25 22 22 22 22 24 25 25 27 26 25 22 23 24 24 25 25 27 27 28 29 29 29 29
24 25 22 23 17 15 30 29 23 30 33 31 29 26 26 27 27 25 23 21 23 22 21 21 21 22 23 23 24 25 27 27 22 23 23 23 23 25 25 26 26 27 28 27
24 26 23 25 23 31 34 32 34 34 31 34 29 27 27 26 24 20 20 21 22 21 20 20 20 21 21 22 23 24 26 27 25 21 21 22 23 24 24 24 24 24 26 26
31 31 26 25 29 29 31 30 32 33 27 26 31 31 30 24 23 22 22 22 21 21 19 19 19 18 19 20 21 22 24 26 25 24 21 20 21 22 23 23 24 24 24 24
29 30 27 26 29 27 29 29 28 26 24 23 23 23 22 21 21 20 20 20 19 19 18 17 17 17 17 18 18 19 22 25 24 24 24 21 20 20 20 23 25 24 27 27
30 29 27 21 29 29 27 30 27 25 24 23 22 21 22 21 20 20 19 20 18 17 17 16 14 14 15 15 16 17 19 22 24 22 23 24 22 20 20 19 20 24 24 26

GFSCGP_sfc_dewp_114.txt.gz
Dewpoint
21 19 17 18 17 16 14 13 13 13 14 13 12 17 19 20 20 15 14 16 21 27 27 41 45 44 34 43 61 64 65 65 65 65 64 63 63 63 64 64 64 63 63 63
23 22 21 20 20 22 23 21 20 18 16 21 18 18 17 21 22 22 22 15 26 28 43 43 43 43 44 46 48 56 64 65 65 65 64 64 64 64 64 64 64 64 63 63
20 21 21 20 19 18 18 18 15 16 21 24 20 16 16 18 17 20 22 25 38 38 40 40 40 40 41 42 44 50 61 64 65 65 65 62 63 63 63 63 63 63 63 63
24 24 23 22 20 20 19 19 19 21 23 21 21 16 20 16 18 22 36 36 36 36 37 38 38 38 39 40 42 44 52 61 64 65 64 63 63 62 63 63 64 64 63 64
25 26 26 25 24 22 20 24 24 23 24 24 21 22 21 21 22 36 36 36 35 35 35 35 36 37 38 39 40 42 46 47 50 54 64 64 63 63 61 62 63 63 64 64
27 29 28 27 27 26 25 25 26 26 25 20 18 19 17 33 36 36 36 36 37 36 35 36 36 37 37 38 39 40 43 44 46 49 51 60 63 62 61 61 62 62 63 63
27 27 29 30 28 26 25 23 18 17 20 17 19 18 26 34 36 36 36 36 36 37 36 35 35 36 37 37 38 39 40 42 43 46 48 50 53 62 61 61 61 61 62 62
27 21 23 26 25 18 22 22 22 16 18 22 25 22 28 35 36 36 36 37 36 36 36 36 35 35 35 36 37 37 39 40 42 44 46 48 50 52 62 61 61 61 61 61
26 25 28 29 28 26 24 24 29 27 27 24 29 30 33 33 33 34 33 34 34 35 35 35 35 35 35 35 36 36 37 39 40 42 45 47 49 52 52 61 61 60 60 60
30 28 29 29 34 28 27 30 28 29 21 18 24 25 24 27 30 31 31 31 33 34 34 34 34 34 35 35 36 36 36 37 38 40 43 45 48 53 52 56 60 60 60 59
27 32 27 30 30 29 31 29 32 31 28 22 19 22 33 30 30 30 31 32 32 34 34 34 33 34 33 34 34 35 35 35 37 39 41 43 44 46 53 55 61 61 60 59
31 34 26 26 28 35 35 32 32 28 24 29 27 22 33 34 33 33 31 31 32 33 33 32 33 33 33 32 33 33 34 34 35 38 39 41 42 43 44 47 49 61 60 60
36 31 25 23 29 34 32 32 31 33 34 27 23 23 35 35 33 33 30 30 30 31 30 30 31 31 31 31 31 32 33 34 35 36 37 38 39 40 41 42 44 46 59 59
36 35 30 23 27 31 28 33 36 35 27 25 24 25 28 29 30 31 29 29 27 27 28 29 29 30 30 30 30 31 32 32 34 34 35 36 37 38 39 39 40 41 43 52
36 30 31 31 31 29 28 30 31 28 28 23 25 23 26 28 29 30 29 25 25 25 27 28 29 29 30 28 29 30 30 31 32 32 33 34 35 36 36 37 38 38 38 39
34 29 32 31 34 32 25 27 27 29 30 27 26 23 29 30 30 28 28 24 24 24 26 27 28 28 28 28 27 28 28 30 30 30 31 32 33 33 34 35 36 36 36 36
32 33 30 27 28 27 19 26 26 26 28 30 22 26 29 26 25 27 27 25 23 24 25 27 27 28 28 28 26 27 27 28 28 28 29 30 31 32 32 32 33 33 34 35
31 32 32 28 28 17 25 29 28 25 26 29 26 27 26 25 27 28 29 26 23 23 24 25 27 27 27 28 26 25 26 26 26 27 27 28 29 30 30 31 31 32 32 33
33 33 30 27 23 26 26 26 26 26 25 29 30 30 29 28 28 25 29 26 25 23 23 24 26 27 26 27 28 24 23 24 24 25 26 27 27 28 28 29 30 30 30 30
32 31 30 27 21 17 23 26 30 29 21 28 26 26 28 30 21 21 25 24 23 22 22 22 23 23 24 26 28 26 23 22 22 23 24 25 26 27 27 28 28 30 30 30
25 28 24 25 22 23 26 30 33 22 22 28 26 25 24 23 24 25 24 22 23 21 21 21 22 22 22 23 24 26 26 23 23 23 24 23 23 25 25 26 28 28 28 29
23 23 22 25 20 17 31 30 23 30 31 29 26 26 26 25 23 22 21 19 21 20 19 19 20 20 21 22 22 23 24 26 23 22 22 23 24 24 25 24 24 25 27 27
24 26 24 24 22 30 32 30 32 31 33 30 28 27 25 23 19 19 17 18 20 19 18 18 18 18 19 19 20 21 23 26 23 23 21 21 22 24 24 24 25 24 24 24
31 31 26 25 28 29 29 30 31 28 27 30 29 29 24 23 22 20 21 20 19 18 16 16 17 17 17 17 18 20 21 24 24 22 22 20 20 21 22 22 23 24 25 24
29 30 27 26 28 28 29 28 27 25 24 23 23 23 22 21 20 20 19 18 18 16 16 14 14 15 15 16 16 17 19 22 22 22 22 21 19 19 19 21 24 23 25 27
31 29 27 25 29 28 28 28 28 25 23 23 21 21 21 21 20 19 18 18 16 14 12 12 12 13 14 13 13 14 16 20 22 21 21 22 23 19 18 18 16 21 23 23

GFSCGP_sfc_dewp_117.txt.gz
Dewpoint
21 17 16 18 18 17 16 16 14 14 16 18 16 14 16 22 22 20 18 19 20 18 19 20 41 46 46 46 57 63 65 64 64 63 63 62 62 62 63 64 65 65 65 66
23 22 22 22 21 19 18 17 17 18 18 16 16 17 21 23 24 23 20 17 19 21 21 24 43 43 45 46 50 63 65 65 64 63 64 65 64 63 63 64 64 65 66 65
24 24 22 21 21 20 19 18 17 17 17 19 21 19 17 19 19 21 21 27 28 35 33 40 41 42 43 44 46 50 63 66 66 65 65 65 65 65 64 64 64 64 65 65
26 26 23 23 24 23 21 20 19 18 20 18 22 18 19 22 28 35 35 35 35 36 37 38 39 40 40 42 44 48 55 65 66 66 65 64 63 62 63 64 64 63 64 64
24 27 26 27 26 22 17 22 22 23 23 23 19 23 17 30 32 35 35 36 37 37 38 37 37 39 39 40 41 44 48 50 53 62 65 64 64 65 64 64 64 64 64 64
28 29 28 28 28 26 25 26 25 25 25 20 19 21 19 28 30 33 34 36 37 37 37 37 37 37 38 39 40 42 45 46 48 51 54 62 64 64 63 63 63 64 64 64
26 27 28 29 26 25 27 23 21 18 20 16 28 24 27 33 33 33 32 33 36 37 37 37 37 36 37 37 38 40 42 43 44 47 49 51 53 58 63 63 63 63 62 63
24 18 24 26 26 25 23 22 21 18 16 20 29 24 26 34 32 34 34 33 34 35 35 37 37 36 35 36 36 37 39 41 42 45 47 49 51 53 54 62 63 64 62 63
24 25 28 28 30 27 25 24 26 28 26 25 28 29 33 29 30 31 32 31 31 33 34 34 36 36 36 36 36 36 37 38 39 42 44 47 49 50 53 54 61 63 64 63
26 26 26 29 31 30 28 28 30 30 22 18 25 23 23 26 29 29 29 30 30 32 32 34 34 34 34 34 35 36 36 36 37 39 42 44 46 47 51 55 55 61 62 63
25 29 24 29 27 25 27 29 34 34 29 25 22 22 32 30 30 28 29 30 30 30 32 32 34 33 32 32 33 34 34 35 36 38 40 41 42 44 46 48 52 53 61 61
29 33 24 24 26 33 32 31 33 27 25 30 26 22 33 33 32 30 29 29 30 31 32 32 33 31 32 31 32 32 33 34 35 36 38 39 39 40 42 43 44 48 50 61
34 30 25 20 27 25 28 30 34 35 34 30 25 23 34 31 31 30 28 28 29 30 30 31 31 31 31 31 31 31 32 33 35 35 36 37 37 38 39 40 41 43 45 48
35 32 28 22 26 31 26 29 34 35 28 23 23 23 26 28 27 28 27 28 28 29 29 29 29 29 29 29 30 30 30 32 33 33 34 35 35 36 37 37 39 40 41 41
34 30 32 33 32 28 28 27 28 26 27 21 24 22 25 27 28 27 28 27 26 26 25 26 27 28 27 26 27 28 29 30 31 31 32 33 34 35 35 36 36 37 38 39
35 29 32 30 34 32 26 28 26 29 27 26 24 23 29 29 29 26 26 24 22 23 24 25 25 25 26 25 25 26 27 28 29 29 30 31 32 32 33 33 34 35 35 36
30 30 30 26 32 28 23 26 26 26 27 27 21 26 28 25 25 25 24 23 21 22 23 25 26 26 27 27 25 26 26 27 27 28 28 29 30 31 31 32 32 32 33 33
31 28 31 27 30 19 28 30 29 24 26 28 26 26 24 24 26 26 25 23 22 22 23 24 26 26 27 29 28 25 25 26 26 26 26 27 28 30 30 31 31 31 32 32
31 31 28 27 24 27 27 27 26 26 24 28 28 29 26 27 26 23 25 23 23 23 23 23 24 25 26 28 29 28 25 25 25 25 26 26 27 28 29 30 31 32 31 31
33 32 30 28 23 19 24 28 31 30 20 27 25 26 24 30 22 21 24 23 22 21 21 21 21 21 23 25 26 27 26 25 24 25 26 26 28 27 27 29 30 32 32 32
24 26 24 24 23 22 26 31 35 23 23 27 25 25 23 22 23 24 23 22 21 19 19 20 20 20 20 21 23 24 25 26 25 25 25 26 27 28 28 30 30 30 32 32
22 23 22 24 22 19 30 32 25 28 31 28 27 25 24 24 24 23 22 21 20 18 17 18 18 18 19 20 20 21 23 25 24 24 24 25 26 27 28 27 29 29 28 28
24 25 23 24 22 30 33 30 32 34 30 29 27 25 24 23 22 21 21 20 19 16 16 17 17 17 17 18 19 19 22 23 23 23 21 22 23 24 25 26 27 26 27 25
30 31 26 27 29 28 30 31 28 29 30 30 26 25 24 23 23 22 20 19 17 15 14 15 16 15 16 16 16 19 21 22 21 21 21 19 19 20 21 21 21 23 26 24
29 31 26 26 28 28 28 29 27 25 25 24 23 22 21 21 20 18 16 15 14 11 11 12 13 13 13 13 15 17 19 21 19 20 20 21 20 19 17 20 21 22 25 25
30 29 27 25 29 28 28 30 27 25 23 22 21 21 20 20 18 18 17 16 14 10 10 10 9 9 11 11 14 15 17 20 19 18 19 21 21 20 18 16 16 20 20 21